Observation data for Sierra Blanca on 11/07/2019      Previous  Date       Current Mesonet Observations  Soil Data  Daily Summary Page  Observations in Plain Language
KSB1 070600Z 12007KT 15/13 A3016 RMK A01 T01450131  RH  091%=      5-min Rain = 0
KSB1 070601Z 12007KT 15/13 A3016 RMK A01 T01460131  RH  091%=      5-min Rain = 0
KSB1 070602Z 12008KT 15/13 A3016 RMK A01 T01460131  RH  091%=      5-min Rain = 0
KSB1 070603Z 12007KT 15/13 A3016 RMK A01 T01460130  RH  091%=      5-min Rain = 0
KSB1 070604Z 12005KT 15/13 A3016 RMK A01 T01460130  RH  090%=      5-min Rain = 0
KSB1 070605Z 12006KT 15/13 A3016 RMK A01 T01460130  RH  090%=      5-min Rain = 0
KSB1 070606Z 11006KT 15/13 A3016 RMK A01 T01460131  RH  090%=      5-min Rain = 0
KSB1 070607Z 11005KT 15/13 A3016 RMK A01 T01460131  RH  091%=      5-min Rain = 0
KSB1 070608Z 11005KT 15/13 A3016 RMK A01 T01450131  RH  091%=      5-min Rain = 0
KSB1 070609Z 12005KT 15/13 A3016 RMK A01 T01450130  RH  091%=      5-min Rain = 0
KSB1 070610Z 12006KT 14/13 A3016 RMK A01 T01440130  RH  091%=      5-min Rain = 0
KSB1 070611Z 12005KT 14/13 A3016 RMK A01 T01440130  RH  091%=      5-min Rain = 0
KSB1 070612Z 13005KT 14/13 A3016 RMK A01 T01440130  RH  092%=      5-min Rain = 0
KSB1 070613Z 13004KT 14/13 A3016 RMK A01 T01440130  RH  092%=      5-min Rain = 0
KSB1 070614Z 12006KT 14/13 A3016 RMK A01 T01440130  RH  092%=      5-min Rain = 0
KSB1 070615Z 12005KT 14/13 A3016 RMK A01 T01430130  RH  092%=      5-min Rain = 0
KSB1 070616Z 12006KT 14/13 A3016 RMK A01 T01430130  RH  092%=      5-min Rain = 0
KSB1 070617Z 12007KT 14/13 A3016 RMK A01 T01430130  RH  092%=      5-min Rain = 0
KSB1 070618Z 13006KT 14/13 A3016 RMK A01 T01430130  RH  092%=      5-min Rain = 0
KSB1 070619Z 13007KT 14/13 A3016 RMK A01 T01430130  RH  092%=      5-min Rain = 0
KSB1 070620Z 14005KT 14/13 A3017 RMK A01 T01430130  RH  092%=      5-min Rain = 0
KSB1 070621Z 14005KT 14/13 A3017 RMK A01 T01430130  RH  092%=      5-min Rain = 0
KSB1 070622Z 15004KT 14/13 A3017 RMK A01 T01430130  RH  092%=      5-min Rain = 0
KSB1 070623Z 14005KT 14/13 A3016 RMK A01 T01430130  RH  092%=      5-min Rain = 0
KSB1 070624Z 15005KT 14/13 A3016 RMK A01 T01420130  RH  092%=      5-min Rain = 0
KSB1 070625Z 14006KT 14/13 A3016 RMK A01 T01420130  RH  092%=      5-min Rain = 0
KSB1 070626Z 14007KT 14/13 A3016 RMK A01 T01420130  RH  093%=      5-min Rain = 0
KSB1 070627Z 14007KT 14/13 A3016 RMK A01 T01410130  RH  093%=      5-min Rain = 0
KSB1 070628Z 14007KT 14/13 A3016 RMK A01 T01410130  RH  093%=      5-min Rain = 0
KSB1 070629Z 14008KT 14/13 A3016 RMK A01 T01410130  RH  093%=      5-min Rain = 0
KSB1 070630Z 14007KT 14/13 A3016 RMK A01 T01410130  RH  093%=      5-min Rain = 0
KSB1 070631Z 15007KT 14/13 A3016 RMK A01 T01410130  RH  093%=      5-min Rain = 0
KSB1 070632Z 15007KT 14/13 A3016 RMK A01 T01410130  RH  093%=      5-min Rain = 0
KSB1 070633Z 14008KT 14/13 A3016 RMK A01 T01410130  RH  093%=      5-min Rain = 0
KSB1 070634Z 15008KT 14/13 A3016 RMK A01 T01400129  RH  093%=      5-min Rain = 0
KSB1 070635Z 14008KT 14/13 A3016 RMK A01 T01400129  RH  093%=      5-min Rain = 0
KSB1 070636Z 14008KT 14/13 A3016 RMK A01 T01400129  RH  093%=      5-min Rain = 0
KSB1 070637Z 14008KT 14/13 A3016 RMK A01 T01400129  RH  093%=      5-min Rain = 0
KSB1 070638Z 14008KT 14/13 A3016 RMK A01 T01410129  RH  093%=      5-min Rain = 0
KSB1 070639Z 14007KT 14/13 A3016 RMK A01 T01410129  RH  092%=      5-min Rain = 0
KSB1 070640Z 14008KT 14/13 A3016 RMK A01 T01410129  RH  092%=      5-min Rain = 0
KSB1 070641Z 14007KT 14/13 A3016 RMK A01 T01410129  RH  092%=      5-min Rain = 0
KSB1 070642Z 14007KT 14/13 A3016 RMK A01 T01410129  RH  092%=      5-min Rain = 0
KSB1 070643Z 13006KT 14/13 A3016 RMK A01 T01410129  RH  092%=      5-min Rain = 0
KSB1 070644Z 14007KT 14/13 A3016 RMK A01 T01410129  RH  092%=      5-min Rain = 0
KSB1 070645Z 14007KT 14/13 A3016 RMK A01 T01410129  RH  092%=      5-min Rain = 0
KSB1 070646Z 14007KT 14/13 A3016 RMK A01 T01410129  RH  092%=      5-min Rain = 0
KSB1 070647Z 14007KT 14/13 A3016 RMK A01 T01410129  RH  092%=      5-min Rain = 0
KSB1 070648Z 14007KT 14/13 A3016 RMK A01 T01410129  RH  092%=      5-min Rain = 0
KSB1 070649Z 14007KT 14/13 A3016 RMK A01 T01410129  RH  092%=      5-min Rain = 0
KSB1 070650Z 14007KT 14/13 A3016 RMK A01 T01400128  RH  093%=      5-min Rain = 0
KSB1 070651Z 15007KT 14/13 A3016 RMK A01 T01400129  RH  093%=      5-min Rain = 0
KSB1 070652Z 15007KT 14/13 A3016 RMK A01 T01400128  RH  093%=      5-min Rain = 0
KSB1 070653Z 15006KT 14/13 A3016 RMK A01 T01400128  RH  093%=      5-min Rain = 0
KSB1 070654Z 15007KT 14/13 A3016 RMK A01 T01400128  RH  093%=      5-min Rain = 0
KSB1 070655Z 15006KT 14/13 A3016 RMK A01 T01400128  RH  093%=      5-min Rain = 0
KSB1 070656Z 15006KT 14/13 A3016 RMK A01 T01400128  RH  093%=      5-min Rain = 0
KSB1 070657Z 15006KT 14/13 A3016 RMK A01 T01400128  RH  093%=      5-min Rain = 0
KSB1 070658Z 15006KT 14/13 A3016 RMK A01 T01400128  RH  092%=      5-min Rain = 0
KSB1 070659Z 15004KT 14/13 A3016 RMK A01 T01400128  RH  092%=      5-min Rain = 0
KSB1 070700Z 16005KT 14/13 A3016 RMK A01 T01400128  RH  092%=      5-min Rain = 0
KSB1 070701Z 15005KT 14/13 A3017 RMK A01 T01400128  RH  092%=      5-min Rain = 0
KSB1 070702Z 14004KT 14/13 A3017 RMK A01 T01400127  RH  092%=      5-min Rain = 0
KSB1 070703Z 14004KT 14/13 A3017 RMK A01 T01400128  RH  092%=      5-min Rain = 0
KSB1 070704Z 14005KT 14/13 A3017 RMK A01 T01400128  RH  092%=      5-min Rain = 0
KSB1 070705Z 14004KT 14/13 A3017 RMK A01 T01400127  RH  092%=      5-min Rain = 0
KSB1 070706Z 15005KT 14/13 A3017 RMK A01 T01400128  RH  092%=      5-min Rain = 0
KSB1 070707Z 15004KT 14/13 A3017 RMK A01 T01400127  RH  092%=      5-min Rain = 0
KSB1 070708Z 15004KT 14/13 A3017 RMK A01 T01400127  RH  092%=      5-min Rain = 0
KSB1 070709Z 16004KT 14/13 A3017 RMK A01 T01400127  RH  092%=      5-min Rain = 0
KSB1 070710Z 15004KT 14/13 A3017 RMK A01 T01400127  RH  092%=      5-min Rain = 0
KSB1 070711Z 15004KT 14/13 A3017 RMK A01 T01400127  RH  092%=      5-min Rain = 0
KSB1 070712Z 14004KT 14/13 A3017 RMK A01 T01410128  RH  092%=      5-min Rain = 0
KSB1 070713Z 13004KT 14/13 A3017 RMK A01 T01420128  RH  091%=      5-min Rain = 0
KSB1 070714Z 13005KT 14/13 A3017 RMK A01 T01420128  RH  091%=      5-min Rain = 0
KSB1 070715Z 13005KT 14/13 A3017 RMK A01 T01420128  RH  091%=      5-min Rain = 0
KSB1 070716Z 12006KT 14/13 A3017 RMK A01 T01420128  RH  091%=      5-min Rain = 0
KSB1 070717Z 12006KT 14/13 A3017 RMK A01 T01420128  RH  091%=      5-min Rain = 0
KSB1 070718Z 12006KT 14/13 A3017 RMK A01 T01430128  RH  091%=      5-min Rain = 0
KSB1 070719Z 12006KT 14/13 A3017 RMK A01 T01420128  RH  091%=      5-min Rain = 0
KSB1 070720Z 11006KT 14/13 A3017 RMK A01 T01420128  RH  091%=      5-min Rain = 0
KSB1 070721Z 12006KT 14/13 A3017 RMK A01 T01420128  RH  091%=      5-min Rain = 0
KSB1 070722Z 12006KT 14/13 A3017 RMK A01 T01420128  RH  091%=      5-min Rain = 0
KSB1 070723Z 12006KT 14/13 A3017 RMK A01 T01420128  RH  092%=      5-min Rain = 0
KSB1 070724Z 12006KT 14/13 A3017 RMK A01 T01410128  RH  092%=      5-min Rain = 0
KSB1 070725Z 12005KT 14/13 A3017 RMK A01 T01410128  RH  092%=      5-min Rain = 0
KSB1 070726Z 12005KT 14/13 A3017 RMK A01 T01410128  RH  092%=      5-min Rain = 0
KSB1 070727Z 12005KT 14/13 A3017 RMK A01 T01410128  RH  092%=      5-min Rain = 0
KSB1 070728Z 13005KT 14/13 A3017 RMK A01 T01410128  RH  092%=      5-min Rain = 0
KSB1 070729Z 13006KT 14/13 A3017 RMK A01 T01410128  RH  092%=      5-min Rain = 0
KSB1 070730Z 13005KT 14/13 A3017 RMK A01 T01410128  RH  092%=      5-min Rain = 0
KSB1 070731Z 14006KT 14/13 A3017 RMK A01 T01410128  RH  092%=      5-min Rain = 0
KSB1 070732Z 14006KT 14/13 A3017 RMK A01 T01410128  RH  092%=      5-min Rain = 0
KSB1 070733Z 13006KT 14/13 A3018 RMK A01 T01410128  RH  092%=      5-min Rain = 0
KSB1 070734Z 14006KT 14/13 A3018 RMK A01 T01410127  RH  091%=      5-min Rain = 0
KSB1 070735Z 14006KT 14/13 A3018 RMK A01 T01420128  RH  091%=      5-min Rain = 0
KSB1 070736Z 14006KT 14/13 A3018 RMK A01 T01420127  RH  091%=      5-min Rain = 0
KSB1 070737Z 14005KT 14/13 A3018 RMK A01 T01430128  RH  091%=      5-min Rain = 0
KSB1 070738Z 14006KT 14/13 A3018 RMK A01 T01420127  RH  091%=      5-min Rain = 0
KSB1 070739Z 14005KT 14/13 A3018 RMK A01 T01420127  RH  091%=      5-min Rain = 0
KSB1 070740Z 14006KT 14/13 A3018 RMK A01 T01410127  RH  091%=      5-min Rain = 0
KSB1 070741Z 15006KT 14/13 A3018 RMK A01 T01410127  RH  091%=      5-min Rain = 0
KSB1 070742Z 15006KT 14/13 A3018 RMK A01 T01410127  RH  092%=      5-min Rain = 0
KSB1 070743Z 15006KT 14/13 A3018 RMK A01 T01400127  RH  092%=      5-min Rain = 0
KSB1 070744Z 14007KT 14/13 A3018 RMK A01 T01400127  RH  092%=      5-min Rain = 0
KSB1 070745Z 14006KT 14/13 A3017 RMK A01 T01400127  RH  092%=      5-min Rain = 0
KSB1 070746Z 14007KT 14/13 A3017 RMK A01 T01400128  RH  092%=      5-min Rain = 0
KSB1 070747Z 14007KT 14/13 A3017 RMK A01 T01400128  RH  092%=      5-min Rain = 0
KSB1 070748Z 14007KT 14/13 A3017 RMK A01 T01400128  RH  093%=      5-min Rain = 0
KSB1 070749Z 13007KT 14/13 A3017 RMK A01 T01400128  RH  093%=      5-min Rain = 0
KSB1 070750Z 13006KT 14/13 A3017 RMK A01 T01390127  RH  093%=      5-min Rain = 0
KSB1 070751Z 13006KT 14/13 A3017 RMK A01 T01390127  RH  093%=      5-min Rain = 0
KSB1 070752Z 14005KT 14/13 A3017 RMK A01 T01390128  RH  093%=      5-min Rain = 0
KSB1 070753Z 14005KT 14/13 A3017 RMK A01 T01390127  RH  093%=      5-min Rain = 0
KSB1 070754Z 14005KT 14/13 A3017 RMK A01 T01390127  RH  093%=      5-min Rain = 0
KSB1 070755Z 14005KT 14/13 A3017 RMK A01 T01390127  RH  093%=      5-min Rain = 0
KSB1 070756Z 14006KT 14/13 A3017 RMK A01 T01380127  RH  093%=      5-min Rain = 0
KSB1 070757Z 14005KT 14/13 A3017 RMK A01 T01380127  RH  093%=      5-min Rain = 0
KSB1 070758Z 13005KT 14/13 A3017 RMK A01 T01380127  RH  093%=      5-min Rain = 0
KSB1 070759Z 13006KT 14/13 A3017 RMK A01 T01380127  RH  093%=      5-min Rain = 0
KSB1 070800Z 13006KT 14/13 A3017 RMK A01 T01380128  RH  093%=      5-min Rain = 0
KSB1 070801Z 13006KT 14/13 A3017 RMK A01 T01390128  RH  093%=      5-min Rain = 0
KSB1 070802Z 13006KT 14/13 A3017 RMK A01 T01390128  RH  093%=      5-min Rain = 0
KSB1 070803Z 13005KT 14/13 A3017 RMK A01 T01390128  RH  093%=      5-min Rain = 0
KSB1 070804Z 13005KT 14/13 A3017 RMK A01 T01390128  RH  093%=      5-min Rain = 0
KSB1 070805Z 14005KT 14/13 A3017 RMK A01 T01390128  RH  093%=      5-min Rain = 0
KSB1 070806Z 14005KT 14/13 A3017 RMK A01 T01390128  RH  093%=      5-min Rain = 0
KSB1 070807Z 15005KT 14/13 A3017 RMK A01 T01390128  RH  093%=      5-min Rain = 0
KSB1 070808Z 15004KT 14/13 A3017 RMK A01 T01380127  RH  093%=      5-min Rain = 0
KSB1 070809Z 15004KT 14/13 A3017 RMK A01 T01380127  RH  093%=      5-min Rain = 0
KSB1 070810Z 16004KT 14/13 A3017 RMK A01 T01370127  RH  093%=      5-min Rain = 0
KSB1 070811Z 16004KT 14/13 A3017 RMK A01 T01370127  RH  094%=      5-min Rain = 0
KSB1 070812Z 16004KT 14/13 A3017 RMK A01 T01370127  RH  094%=      5-min Rain = 0
KSB1 070813Z 16004KT 14/13 A3017 RMK A01 T01370127  RH  094%=      5-min Rain = 0
KSB1 070814Z 16004KT 14/13 A3018 RMK A01 T01360127  RH  094%=      5-min Rain = 0
KSB1 070815Z 16004KT 14/13 A3017 RMK A01 T01360127  RH  094%=      5-min Rain = 0
KSB1 070816Z 16004KT 14/13 A3017 RMK A01 T01350126  RH  094%=      5-min Rain = 0
KSB1 070817Z 16004KT 14/13 A3017 RMK A01 T01360127  RH  094%=      5-min Rain = 0
KSB1 070818Z 16003KT 14/13 A3017 RMK A01 T01360127  RH  095%=      5-min Rain = 0
KSB1 070819Z 16003KT 14/13 A3017 RMK A01 T01360127  RH  095%=      5-min Rain = 0
KSB1 070820Z 16003KT 14/13 A3017 RMK A01 T01350127  RH  095%=      5-min Rain = 0
KSB1 070821Z 16004KT 14/13 A3017 RMK A01 T01350127  RH  095%=      5-min Rain = 0
KSB1 070822Z 15003KT 14/13 A3017 RMK A01 T01360127  RH  095%=      5-min Rain = 0
KSB1 070823Z 15004KT 14/13 A3016 RMK A01 T01360128  RH  095%=      5-min Rain = 0
KSB1 070824Z 14004KT 14/13 A3016 RMK A01 T01360128  RH  095%=      5-min Rain = 0
KSB1 070825Z 14004KT 14/13 A3016 RMK A01 T01370128  RH  095%=      5-min Rain = 0
KSB1 070826Z 14004KT 14/13 A3016 RMK A01 T01370128  RH  094%=      5-min Rain = 0
KSB1 070827Z 14004KT 14/13 A3016 RMK A01 T01370128  RH  094%=      5-min Rain = 0
KSB1 070828Z 14004KT 14/13 A3016 RMK A01 T01380129  RH  094%=      5-min Rain = 0
KSB1 070829Z 13003KT 14/13 A3016 RMK A01 T01380128  RH  094%=      5-min Rain = 0
KSB1 070830Z 12003KT 14/13 A3016 RMK A01 T01380129  RH  094%=      5-min Rain = 0
KSB1 070831Z 13004KT 14/13 A3016 RMK A01 T01380129  RH  094%=      5-min Rain = 0
KSB1 070832Z 13004KT 14/13 A3016 RMK A01 T01380129  RH  094%=      5-min Rain = 0
KSB1 070833Z 13004KT 14/13 A3016 RMK A01 T01380129  RH  094%=      5-min Rain = 0
KSB1 070834Z 12004KT 14/13 A3016 RMK A01 T01380129  RH  094%=      5-min Rain = 0
KSB1 070835Z 12004KT 14/13 A3016 RMK A01 T01380129  RH  094%=      5-min Rain = 0
KSB1 070836Z 12003KT 14/13 A3016 RMK A01 T01380129  RH  094%=      5-min Rain = 0
KSB1 070837Z 12003KT 14/13 A3017 RMK A01 T01380129  RH  094%=      5-min Rain = 0
KSB1 070838Z 12003KT 14/13 A3017 RMK A01 T01380129  RH  094%=      5-min Rain = 0
KSB1 070839Z 11002KT 14/13 A3017 RMK A01 T01380129  RH  094%=      5-min Rain = 0
KSB1 070840Z 10002KT 14/13 A3017 RMK A01 T01380129  RH  094%=      5-min Rain = 0
KSB1 070841Z 06001KT 14/13 A3017 RMK A01 T01380129  RH  094%=      5-min Rain = 0
KSB1 070842Z 01002KT 14/13 A3017 RMK A01 T01380129  RH  094%=      5-min Rain = 0
KSB1 070843Z 01002KT 14/13 A3017 RMK A01 T01370129  RH  095%=      5-min Rain = 0
KSB1 070844Z 01002KT 14/13 A3017 RMK A01 T01370129  RH  095%=      5-min Rain = 0
KSB1 070845Z 02003KT 14/13 A3017 RMK A01 T01360129  RH  095%=      5-min Rain = 0
KSB1 070846Z 03003KT 14/13 A3017 RMK A01 T01360129  RH  095%=      5-min Rain = 0
KSB1 070847Z 03003KT 14/13 A3017 RMK A01 T01360129  RH  095%=      5-min Rain = 0
KSB1 070848Z 02003KT 14/13 A3017 RMK A01 T01370129  RH  095%=      5-min Rain = 0
KSB1 070849Z 03003KT 14/13 A3017 RMK A01 T01360129  RH  095%=      5-min Rain = 0
KSB1 070850Z 02003KT 14/13 A3017 RMK A01 T01360129  RH  095%=      5-min Rain = 0
KSB1 070851Z 01003KT 14/13 A3017 RMK A01 T01360129  RH  095%=      5-min Rain = 0
KSB1 070852Z 02003KT 14/13 A3017 RMK A01 T01360129  RH  095%=      5-min Rain = 0
KSB1 070853Z 01003KT 14/13 A3017 RMK A01 T01360129  RH  095%=      5-min Rain = 0
KSB1 070854Z 01003KT 14/13 A3017 RMK A01 T01370129  RH  095%=      5-min Rain = 0
KSB1 070855Z 01002KT 14/13 A3017 RMK A01 T01370129  RH  095%=      5-min Rain = 0
KSB1 070856Z 02002KT 14/13 A3017 RMK A01 T01370129  RH  095%=      5-min Rain = 0
KSB1 070857Z 00003KT 14/13 A3017 RMK A01 T01370129  RH  095%=      5-min Rain = 0
KSB1 070858Z 00003KT 14/13 A3017 RMK A01 T01370129  RH  095%=      5-min Rain = 0
KSB1 070859Z 01003KT 14/13 A3018 RMK A01 T01370129  RH  095%=      5-min Rain = 0
KSB1 070900Z 01003KT 14/13 A3018 RMK A01 T01370129  RH  095%=      5-min Rain = 0
KSB1 070901Z 01004KT 14/13 A3018 RMK A01 T01370129  RH  095%=      5-min Rain = 0
KSB1 070902Z 01003KT 14/13 A3018 RMK A01 T01370130  RH  095%=      5-min Rain = 0
KSB1 070903Z 02004KT 14/13 A3018 RMK A01 T01370129  RH  095%=      5-min Rain = 0
KSB1 070904Z 02003KT 14/13 A3018 RMK A01 T01370130  RH  095%=      5-min Rain = 0
KSB1 070905Z 02003KT 14/13 A3018 RMK A01 T01360129  RH  096%=      5-min Rain = 0
KSB1 070906Z 03003KT 14/13 A3018 RMK A01 T01360130  RH  096%=      5-min Rain = 0
KSB1 070907Z 03003KT 14/13 A3018 RMK A01 T01360129  RH  096%=      5-min Rain = 0
KSB1 070908Z 03003KT 14/13 A3017 RMK A01 T01360129  RH  096%=      5-min Rain = 0
KSB1 070909Z 03003KT 14/13 A3017 RMK A01 T01360129  RH  096%=      5-min Rain = 0
KSB1 070910Z 03003KT 14/13 A3017 RMK A01 T01360130  RH  096%=      5-min Rain = 0
KSB1 070911Z 04004KT 14/13 A3017 RMK A01 T01360129  RH  096%=      5-min Rain = 0
KSB1 070912Z 03003KT 14/13 A3018 RMK A01 T01360129  RH  096%=      5-min Rain = 0
KSB1 070913Z 03004KT 14/13 A3018 RMK A01 T01350129  RH  096%=      5-min Rain = 0
KSB1 070914Z 03004KT 14/13 A3018 RMK A01 T01350130  RH  096%=      5-min Rain = 0
KSB1 070915Z 03004KT 14/13 A3018 RMK A01 T01350130  RH  097%=      5-min Rain = 0
KSB1 070916Z 02004KT 14/13 A3018 RMK A01 T01350130  RH  097%=      5-min Rain = 0
KSB1 070917Z 02004KT 14/13 A3018 RMK A01 T01350130  RH  097%=      5-min Rain = 0
KSB1 070918Z 02004KT 14/13 A3018 RMK A01 T01350130  RH  097%=      5-min Rain = 0
KSB1 070919Z 02004KT 14/13 A3018 RMK A01 T01350130  RH  097%=      5-min Rain = 0
KSB1 070920Z 01004KT 14/13 A3018 RMK A01 T01350130  RH  097%=      5-min Rain = 0
KSB1 070921Z 01005KT 14/13 A3018 RMK A01 T01350130  RH  097%=      5-min Rain = 0
KSB1 070922Z 00004KT 14/13 A3018 RMK A01 T01350129  RH  097%=      5-min Rain = 0
KSB1 070923Z 00004KT 14/13 A3018 RMK A01 T01350129  RH  097%=      5-min Rain = 0
KSB1 070924Z 00004KT 14/13 A3018 RMK A01 T01350129  RH  097%=      5-min Rain = 0
KSB1 070925Z 00004KT 14/13 A3018 RMK A01 T01350130  RH  097%=      5-min Rain = 0
KSB1 070926Z 00004KT 13/13 A3018 RMK A01 T01340130  RH  097%=      5-min Rain = 0
KSB1 070927Z 01004KT 13/13 A3018 RMK A01 T01340129  RH  097%=      5-min Rain = 0
KSB1 070928Z 01004KT 13/13 A3018 RMK A01 T01340130  RH  097%=      5-min Rain = 0
KSB1 070929Z 01003KT 13/13 A3018 RMK A01 T01340130  RH  097%=      5-min Rain = 0
KSB1 070930Z 02003KT 13/13 A3018 RMK A01 T01340130  RH  097%=      5-min Rain = 0
KSB1 070931Z 03003KT 13/13 A3017 RMK A01 T01340129  RH  097%=      5-min Rain = 0
KSB1 070932Z 03004KT 13/13 A3017 RMK A01 T01340129  RH  097%=      5-min Rain = 0
KSB1 070933Z 04004KT 13/13 A3017 RMK A01 T01340129  RH  097%=      5-min Rain = 0
KSB1 070934Z 04004KT 13/13 A3017 RMK A01 T01340129  RH  097%=      5-min Rain = 0
KSB1 070935Z 04004KT 13/13 A3017 RMK A01 T01340129  RH  097%=      5-min Rain = 0
KSB1 070936Z 05004KT 13/13 A3017 RMK A01 T01340129  RH  097%=      5-min Rain = 0
KSB1 070937Z 05004KT 13/13 A3017 RMK A01 T01340129  RH  097%=      5-min Rain = 0
KSB1 070938Z 05004KT 13/13 A3017 RMK A01 T01340129  RH  097%=      5-min Rain = 0
KSB1 070939Z 06004KT 13/13 A3017 RMK A01 T01340129  RH  097%=      5-min Rain = 0
KSB1 070940Z 06005KT 13/13 A3017 RMK A01 T01340129  RH  097%=      5-min Rain = 0
KSB1 070941Z 06004KT 13/13 A3017 RMK A01 T01340129  RH  097%=      5-min Rain = 0
KSB1 070942Z 07003KT 14/13 A3017 RMK A01 T01350130  RH  097%=      5-min Rain = 0
KSB1 070943Z 07004KT 14/13 A3017 RMK A01 T01360130  RH  096%=      5-min Rain = 0
KSB1 070944Z 07005KT 14/13 A3017 RMK A01 T01360130  RH  096%=      5-min Rain = 0
KSB1 070945Z 07004KT 14/13 A3017 RMK A01 T01370130  RH  096%=      5-min Rain = 0
KSB1 070946Z 07005KT 14/13 A3017 RMK A01 T01370130  RH  096%=      5-min Rain = 0
KSB1 070947Z 08005KT 14/13 A3016 RMK A01 T01370130  RH  095%=      5-min Rain = 0
KSB1 070948Z 08005KT 14/13 A3016 RMK A01 T01360129  RH  095%=      5-min Rain = 0
KSB1 070949Z 08005KT 14/13 A3016 RMK A01 T01360129  RH  096%=      5-min Rain = 0
KSB1 070950Z 07004KT 14/13 A3016 RMK A01 T01350128  RH  096%=      5-min Rain = 0
KSB1 070951Z 07004KT 13/13 A3017 RMK A01 T01340128  RH  096%=      5-min Rain = 0
KSB1 070952Z 07003KT 13/13 A3017 RMK A01 T01340128  RH  096%=      5-min Rain = 0
KSB1 070953Z 07003KT 13/13 A3017 RMK A01 T01330128  RH  096%=      5-min Rain = 0
KSB1 070954Z 06002KT 13/13 A3017 RMK A01 T01330128  RH  097%=      5-min Rain = 0
KSB1 070955Z 07002KT 13/13 A3017 RMK A01 T01330128  RH  097%=      5-min Rain = 0
KSB1 070956Z 06002KT 13/13 A3017 RMK A01 T01330128  RH  097%=      5-min Rain = 0
KSB1 070957Z 05002KT 13/13 A3017 RMK A01 T01330128  RH  097%=      5-min Rain = 0
KSB1 070958Z 05002KT 13/13 A3017 RMK A01 T01330128  RH  097%=      5-min Rain = 0
KSB1 070959Z 05001KT 13/13 A3017 RMK A01 T01330128  RH  097%=      5-min Rain = 0
KSB1 071000Z 05001KT 13/13 A3017 RMK A01 T01330129  RH  097%=      5-min Rain = 0
KSB1 071001Z 05001KT 13/13 A3017 RMK A01 T01330129  RH  097%=      5-min Rain = 0
KSB1 071002Z 05000KT 13/13 A3017 RMK A01 T01330129  RH  097%=      5-min Rain = 0
KSB1 071003Z 09000KT 13/13 A3017 RMK A01 T01330129  RH  097%=      5-min Rain = 0
KSB1 071004Z 10001KT 13/13 A3017 RMK A01 T01330129  RH  097%=      5-min Rain = 0
KSB1 071005Z 14002KT 13/13 A3017 RMK A01 T01320128  RH  097%=      5-min Rain = 0
KSB1 071006Z 12001KT 13/13 A3017 RMK A01 T01320127  RH  097%=      5-min Rain = 0
KSB1 071007Z 10001KT 13/13 A3017 RMK A01 T01310127  RH  097%=      5-min Rain = 0
KSB1 071008Z 11001KT 13/13 A3017 RMK A01 T01310127  RH  097%=      5-min Rain = 0
KSB1 071009Z 12002KT 13/13 A3017 RMK A01 T01300126  RH  097%=      5-min Rain = 0
KSB1 071010Z 10002KT 13/13 A3017 RMK A01 T01300126  RH  097%=      5-min Rain = 0
KSB1 071011Z 12003KT 13/13 A3017 RMK A01 T01300127  RH  098%=      5-min Rain = 0
KSB1 071012Z 11002KT 13/13 A3017 RMK A01 T01310128  RH  098%=      5-min Rain = 0
KSB1 071013Z 12002KT 13/13 A3017 RMK A01 T01310128  RH  098%=      5-min Rain = 0
KSB1 071014Z 12003KT 13/13 A3017 RMK A01 T01310127  RH  098%=      5-min Rain = 0
KSB1 071015Z 13003KT 13/13 A3017 RMK A01 T01310127  RH  098%=      5-min Rain = 0
KSB1 071016Z 13003KT 13/13 A3017 RMK A01 T01300127  RH  098%=      5-min Rain = 0
KSB1 071017Z 12004KT 13/13 A3017 RMK A01 T01300127  RH  098%=      5-min Rain = 0
KSB1 071018Z 13004KT 13/13 A3017 RMK A01 T01300126  RH  098%=      5-min Rain = 0
KSB1 071019Z 13003KT 13/13 A3017 RMK A01 T01300127  RH  098%=      5-min Rain = 0
KSB1 071020Z 13004KT 13/13 A3017 RMK A01 T01300126  RH  098%=      5-min Rain = 0
KSB1 071021Z 13004KT 13/13 A3017 RMK A01 T01290126  RH  098%=      5-min Rain = 0
KSB1 071022Z 12004KT 13/13 A3017 RMK A01 T01300127  RH  098%=      5-min Rain = 0
KSB1 071023Z 12005KT 13/13 A3017 RMK A01 T01300127  RH  098%=      5-min Rain = 0
KSB1 071024Z 12004KT 13/13 A3017 RMK A01 T01300128  RH  098%=      5-min Rain = 0
KSB1 071025Z 12004KT 13/13 A3017 RMK A01 T01310128  RH  098%=      5-min Rain = 0
KSB1 071026Z 11004KT 13/13 A3017 RMK A01 T01310128  RH  098%=      5-min Rain = 0
KSB1 071027Z 11004KT 13/13 A3017 RMK A01 T01320129  RH  098%=      5-min Rain = 0
KSB1 071028Z 11004KT 13/13 A3017 RMK A01 T01320129  RH  098%=      5-min Rain = 0
KSB1 071029Z 11003KT 13/13 A3017 RMK A01 T01320130  RH  098%=      5-min Rain = 0
KSB1 071030Z 11003KT 13/13 A3017 RMK A01 T01320129  RH  098%=      5-min Rain = 0
KSB1 071031Z 11003KT 13/13 A3017 RMK A01 T01320129  RH  098%=      5-min Rain = 0
KSB1 071032Z 12003KT 13/13 A3017 RMK A01 T01320129  RH  098%=      5-min Rain = 0
KSB1 071033Z 12002KT 13/13 A3017 RMK A01 T01320129  RH  098%=      5-min Rain = 0
KSB1 071034Z 12002KT 13/13 A3017 RMK A01 T01320129  RH  098%=      5-min Rain = 0
KSB1 071035Z 13002KT 13/13 A3017 RMK A01 T01320129  RH  098%=      5-min Rain = 0
KSB1 071036Z 13002KT 13/13 A3017 RMK A01 T01320129  RH  098%=      5-min Rain = 0
KSB1 071037Z 12001KT 13/13 A3017 RMK A01 T01320129  RH  098%=      5-min Rain = 0
KSB1 071038Z 11001KT 13/13 A3017 RMK A01 T01320129  RH  098%=      5-min Rain = 0
KSB1 071039Z 11001KT 13/13 A3017 RMK A01 T01320129  RH  098%=      5-min Rain = 0
KSB1 071040Z 11000KT 13/13 A3017 RMK A01 T01320129  RH  098%=      5-min Rain = 0
KSB1 071041Z 11000KT 13/13 A3018 RMK A01 T01320130  RH  098%=      5-min Rain = 0
KSB1 071042Z 11000KT 13/13 A3018 RMK A01 T01330130  RH  098%=      5-min Rain = 0
KSB1 071043Z 00000KT 13/13 A3018 RMK A01 T01330130  RH  098%=      5-min Rain = 0
KSB1 071044Z 00000KT 13/13 A3018 RMK A01 T01330130  RH  098%=      5-min Rain = 0
KSB1 071045Z 00000KT 13/13 A3018 RMK A01 T01330131  RH  098%=      5-min Rain = 0
KSB1 071046Z 00000KT 13/13 A3018 RMK A01 T01330131  RH  098%=      5-min Rain = 0
KSB1 071047Z 00000KT 13/13 A3018 RMK A01 T01330131  RH  098%=      5-min Rain = 0
KSB1 071048Z 00000KT 13/13 A3018 RMK A01 T01340131  RH  098%=      5-min Rain = 0
KSB1 071049Z 11000KT 13/13 A3018 RMK A01 T01340131  RH  098%=      5-min Rain = 0
KSB1 071050Z 11001KT 13/13 A3018 RMK A01 T01340131  RH  098%=      5-min Rain = 0
KSB1 071051Z 11000KT 13/13 A3018 RMK A01 T01340131  RH  098%=      5-min Rain = 0
KSB1 071052Z 11000KT 13/13 A3018 RMK A01 T01340131  RH  098%=      5-min Rain = 0
KSB1 071053Z 00000KT 13/13 A3018 RMK A01 T01340131  RH  098%=      5-min Rain = 0
KSB1 071054Z 00000KT 13/13 A3018 RMK A01 T01340131  RH  098%=      5-min Rain = 0
KSB1 071055Z 05001KT 14/13 A3018 RMK A01 T01350131  RH  098%=      5-min Rain = 0
KSB1 071056Z 06002KT 14/13 A3018 RMK A01 T01350132  RH  098%=      5-min Rain = 0
KSB1 071057Z 06002KT 14/13 A3018 RMK A01 T01350131  RH  098%=      5-min Rain = 0
KSB1 071058Z 06002KT 14/13 A3018 RMK A01 T01350131  RH  098%=      5-min Rain = 0
KSB1 071059Z 06002KT 14/13 A3018 RMK A01 T01350131  RH  097%=      5-min Rain = 0
KSB1 071100Z 05002KT 14/13 A3018 RMK A01 T01350131  RH  097%=      5-min Rain = 0
KSB1 071101Z 03002KT 14/13 A3018 RMK A01 T01350131  RH  097%=      5-min Rain = 0
KSB1 071102Z 03002KT 14/13 A3018 RMK A01 T01350131  RH  097%=      5-min Rain = 0
KSB1 071103Z 04002KT 14/13 A3018 RMK A01 T01350130  RH  097%=      5-min Rain = 0
KSB1 071104Z 03001KT 14/13 A3018 RMK A01 T01350130  RH  097%=      5-min Rain = 0
KSB1 071105Z 02001KT 13/13 A3018 RMK A01 T01340130  RH  097%=      5-min Rain = 0
KSB1 071106Z 02000KT 13/13 A3018 RMK A01 T01340130  RH  097%=      5-min Rain = 0
KSB1 071107Z 01001KT 13/13 A3018 RMK A01 T01340130  RH  098%=      5-min Rain = 0
KSB1 071108Z 03001KT 13/13 A3018 RMK A01 T01340131  RH  098%=      5-min Rain = 0
KSB1 071109Z 01001KT 14/13 A3018 RMK A01 T01350131  RH  098%=      5-min Rain = 0
KSB1 071110Z 02000KT 14/13 A3018 RMK A01 T01350131  RH  098%=      5-min Rain = 0
KSB1 071111Z 02000KT 13/13 A3018 RMK A01 T01340131  RH  098%=      5-min Rain = 0
KSB1 071112Z 02000KT 14/13 A3018 RMK A01 T01350131  RH  098%=      5-min Rain = 0
KSB1 071113Z 04001KT 14/13 A3018 RMK A01 T01350131  RH  098%=      5-min Rain = 0
KSB1 071114Z 08002KT 14/13 A3018 RMK A01 T01350132  RH  098%=      5-min Rain = 0
KSB1 071115Z 05001KT 14/13 A3018 RMK A01 T01350132  RH  098%=      5-min Rain = 0
KSB1 071116Z 05002KT 14/13 A3018 RMK A01 T01360132  RH  098%=      5-min Rain = 0
KSB1 071117Z 04001KT 14/13 A3018 RMK A01 T01350132  RH  098%=      5-min Rain = 0
KSB1 071118Z 06001KT 14/13 A3018 RMK A01 T01350132  RH  098%=      5-min Rain = 0
KSB1 071119Z 07001KT 14/13 A3018 RMK A01 T01350132  RH  098%=      5-min Rain = 0
KSB1 071120Z 06002KT 14/13 A3019 RMK A01 T01360132  RH  098%=      5-min Rain = 0
KSB1 071121Z 04002KT 14/13 A3019 RMK A01 T01350132  RH  098%=      5-min Rain = 0
KSB1 071122Z 06002KT 14/13 A3019 RMK A01 T01350132  RH  098%=      5-min Rain = 0
KSB1 071123Z 05001KT 14/13 A3019 RMK A01 T01350132  RH  098%=      5-min Rain = 0
KSB1 071124Z 05001KT 14/13 A3019 RMK A01 T01350132  RH  098%=      5-min Rain = 0
KSB1 071125Z 07001KT 14/13 A3019 RMK A01 T01350131  RH  098%=      5-min Rain = 0
KSB1 071126Z 07001KT 14/13 A3019 RMK A01 T01350131  RH  098%=      5-min Rain = 0
KSB1 071127Z 05001KT 14/13 A3019 RMK A01 T01350132  RH  098%=      5-min Rain = 0
KSB1 071128Z 05002KT 14/13 A3019 RMK A01 T01350131  RH  098%=      5-min Rain = 0
KSB1 071129Z 05001KT 14/13 A3019 RMK A01 T01350132  RH  098%=      5-min Rain = 0
KSB1 071130Z 03002KT 14/13 A3019 RMK A01 T01350132  RH  098%=      5-min Rain = 0
KSB1 071131Z 02002KT 14/13 A3019 RMK A01 T01350132  RH  098%=      5-min Rain = 0
KSB1 071132Z 01003KT 14/13 A3019 RMK A01 T01350131  RH  098%=      5-min Rain = 0
KSB1 071133Z 01003KT 13/13 A3019 RMK A01 T01340131  RH  098%=      5-min Rain = 0
KSB1 071134Z 01004KT 13/13 A3019 RMK A01 T01340130  RH  098%=      5-min Rain = 0
KSB1 071135Z 01004KT 13/13 A3019 RMK A01 T01330130  RH  098%=      5-min Rain = 0
KSB1 071136Z 01004KT 13/13 A3019 RMK A01 T01320129  RH  098%=      5-min Rain = 0
KSB1 071137Z 02004KT 13/13 A3019 RMK A01 T01310128  RH  098%=      5-min Rain = 0
KSB1 071138Z 01003KT 13/13 A3019 RMK A01 T01310128  RH  098%=      5-min Rain = 0
KSB1 071139Z 01003KT 13/13 A3019 RMK A01 T01300127  RH  098%=      5-min Rain = 0
KSB1 071140Z 01003KT 13/13 A3019 RMK A01 T01300127  RH  098%=      5-min Rain = 0
KSB1 071141Z 01002KT 13/13 A3019 RMK A01 T01290127  RH  099%=      5-min Rain = 0
KSB1 071142Z 36002KT 13/13 A3019 RMK A01 T01290128  RH  099%=      5-min Rain = 0
KSB1 071143Z 35002KT 13/13 A3019 RMK A01 T01300128  RH  099%=      5-min Rain = 0
KSB1 071144Z 35002KT 13/13 A3019 RMK A01 T01300129  RH  099%=      5-min Rain = 0
KSB1 071145Z 36002KT 13/13 A3019 RMK A01 T01300129  RH  099%=      5-min Rain = 0
KSB1 071146Z 01002KT 13/13 A3019 RMK A01 T01310129  RH  099%=      5-min Rain = 0
KSB1 071147Z 01002KT 13/13 A3019 RMK A01 T01310130  RH  099%=      5-min Rain = 0
KSB1 071148Z 02001KT 13/13 A3019 RMK A01 T01310131  RH  099%=      5-min Rain = 0
KSB1 071149Z 04000KT 13/13 A3019 RMK A01 T01320131  RH  099%=      5-min Rain = 0
KSB1 071150Z 09000KT 13/13 A3019 RMK A01 T01320131  RH  099%=      5-min Rain = 0
KSB1 071151Z 10002KT 13/13 A3019 RMK A01 T01320131  RH  099%=      5-min Rain = 0
KSB1 071152Z 12002KT 13/13 A3019 RMK A01 T01330132  RH  099%=      5-min Rain = 0
KSB1 071153Z 13003KT 13/13 A3019 RMK A01 T01330132  RH  100%=      5-min Rain = 0
KSB1 071154Z 13003KT 13/13 A3019 RMK A01 T01330133  RH  100%=      5-min Rain = 0
KSB1 071155Z 12003KT 13/13 A3019 RMK A01 T01330132  RH  099%=      5-min Rain = 0
KSB1 071156Z 12003KT 13/13 A3019 RMK A01 T01330132  RH  099%=      5-min Rain = 0
KSB1 071157Z 12003KT 13/13 A3019 RMK A01 T01330132  RH  099%=      5-min Rain = 0
KSB1 071158Z 12002KT 13/13 A3019 RMK A01 T01330132  RH  099%=      5-min Rain = 0
KSB1 071159Z 12002KT 13/13 A302 RMK A01 T01330132  RH  099%=      5-min Rain = 0
KSB1 071200Z 11001KT 13/13 A302 RMK A01 T01330132  RH  099%=      5-min Rain = 0
KSB1 071201Z 10001KT 13/13 A302 RMK A01 T01330132  RH  099%=      5-min Rain = 0
KSB1 071202Z 08001KT 13/13 A302 RMK A01 T01330132  RH  099%=      5-min Rain = 0
KSB1 071203Z 05001KT 13/13 A302 RMK A01 T01330133  RH  099%=      5-min Rain = 0
KSB1 071204Z 03001KT 13/13 A302 RMK A01 T01330133  RH  099%=      5-min Rain = 0
KSB1 071205Z 01002KT 13/13 A302 RMK A01 T01330132  RH  099%=      5-min Rain = 0
KSB1 071206Z 02002KT 13/13 A302 RMK A01 T01330132  RH  099%=      5-min Rain = 0
KSB1 071207Z 02002KT 13/13 A302 RMK A01 T01330132  RH  099%=      5-min Rain = 0
KSB1 071208Z 02002KT 13/13 A302 RMK A01 T01330132  RH  099%=      5-min Rain = 0
KSB1 071209Z 03003KT 13/13 A302 RMK A01 T01320132  RH  099%=      5-min Rain = 0
KSB1 071210Z 03003KT 13/13 A302 RMK A01 T01320131  RH  099%=      5-min Rain = 0
KSB1 071211Z 03002KT 13/13 A302 RMK A01 T01320131  RH  099%=      5-min Rain = 0
KSB1 071212Z 03003KT 13/13 A302 RMK A01 T01310130  RH  099%=      5-min Rain = 0
KSB1 071213Z 07003KT 13/13 A302 RMK A01 T01310130  RH  099%=      5-min Rain = 0
KSB1 071214Z 03001KT 13/13 A302 RMK A01 T01320131  RH  100%=      5-min Rain = 0
KSB1 071215Z 03002KT 13/13 A302 RMK A01 T01320131  RH  100%=      5-min Rain = 0
KSB1 071216Z 03002KT 13/13 A302 RMK A01 T01320131  RH  100%=      5-min Rain = 0
KSB1 071217Z 03003KT 13/13 A302 RMK A01 T01310131  RH  100%=      5-min Rain = 0
KSB1 071218Z 03004KT 13/13 A302 RMK A01 T01310130  RH  100%=      5-min Rain = 0
KSB1 071219Z 04004KT 13/13 A302 RMK A01 T01300129  RH  099%=      5-min Rain = 0
KSB1 071220Z 05004KT 13/13 A302 RMK A01 T01290128  RH  099%=      5-min Rain = 0
KSB1 071221Z 05004KT 13/13 A302 RMK A01 T01290128  RH  100%=      5-min Rain = 0
KSB1 071222Z 05004KT 13/13 A302 RMK A01 T01290129  RH  100%=      5-min Rain = 0
KSB1 071223Z 05004KT 13/13 A302 RMK A01 T01290129  RH  100%=      5-min Rain = 0
KSB1 071224Z 05003KT 13/13 A302 RMK A01 T01290129  RH  100%=      5-min Rain = 0
KSB1 071225Z 05004KT 13/13 A302 RMK A01 T01290129  RH  100%=      5-min Rain = 0
KSB1 071226Z 04003KT 13/13 A302 RMK A01 T01290129  RH  100%=      5-min Rain = 0
KSB1 071227Z 04003KT 13/13 A302 RMK A01 T01290129  RH  100%=      5-min Rain = 0
KSB1 071228Z 04004KT 13/13 A302 RMK A01 T01290129  RH  100%=      5-min Rain = 0
KSB1 071229Z 04004KT 13/13 A302 RMK A01 T01290129  RH  100%=      5-min Rain = 0
KSB1 071230Z 04004KT 13/13 A302 RMK A01 T01290129  RH  100%=      5-min Rain = 0
KSB1 071231Z 04003KT 13/13 A302 RMK A01 T01300129  RH  100%=      5-min Rain = 0
KSB1 071232Z 03003KT 13/13 A302 RMK A01 T01300130  RH  100%=      5-min Rain = 0
KSB1 071233Z 04003KT 13/13 A3021 RMK A01 T01300130  RH  100%=      5-min Rain = 0
KSB1 071234Z 05002KT 13/13 A3021 RMK A01 T01300130  RH  100%=      5-min Rain = 0
KSB1 071235Z 04002KT 13/13 A3021 RMK A01 T01310131  RH  100%=      5-min Rain = 0
KSB1 071236Z 05002KT 13/13 A3021 RMK A01 T01310131  RH  100%=      5-min Rain = 0
KSB1 071237Z 05002KT 13/13 A3021 RMK A01 T01310131  RH  100%=      5-min Rain = 0
KSB1 071238Z 06001KT 13/13 A3021 RMK A01 T01320132  RH  100%=      5-min Rain = 0
KSB1 071239Z 06001KT 13/13 A3021 RMK A01 T01320132  RH  100%=      5-min Rain = 0
KSB1 071240Z 08002KT 13/13 A3021 RMK A01 T01320132  RH  100%=      5-min Rain = 0
KSB1 071241Z 09001KT 13/13 A3022 RMK A01 T01320132  RH  100%=      5-min Rain = 0
KSB1 071242Z 09002KT 13/13 A3022 RMK A01 T01320132  RH  100%=      5-min Rain = 0
KSB1 071243Z 08002KT 13/13 A3022 RMK A01 T01320132  RH  100%=      5-min Rain = 0
KSB1 071244Z 08001KT 13/13 A3022 RMK A01 T01330133  RH  100%=      5-min Rain = 0
KSB1 071245Z 08002KT 13/13 A3022 RMK A01 T01330133  RH  100%=      5-min Rain = 0
KSB1 071246Z 09001KT 13/13 A3022 RMK A01 T01330133  RH  100%=      5-min Rain = 0
KSB1 071247Z 08002KT 13/13 A3022 RMK A01 T01330133  RH  100%=      5-min Rain = 0
KSB1 071248Z 08002KT 13/13 A3022 RMK A01 T01330133  RH  100%=      5-min Rain = 0
KSB1 071249Z 08002KT 13/13 A3022 RMK A01 T01330133  RH  100%=      5-min Rain = 0
KSB1 071250Z 07003KT 13/13 A3022 RMK A01 T01330133  RH  100%=      5-min Rain = 0
KSB1 071251Z 07003KT 13/13 A3022 RMK A01 T01330133  RH  100%=      5-min Rain = 0
KSB1 071252Z 08003KT 13/13 A3022 RMK A01 T01330133  RH  100%=      5-min Rain = 0
KSB1 071253Z 07002KT 13/13 A3022 RMK A01 T01330133  RH  100%=      5-min Rain = 0
KSB1 071254Z 08002KT 13/13 A3022 RMK A01 T01330133  RH  100%=      5-min Rain = 0
KSB1 071255Z 08002KT 13/13 A3022 RMK A01 T01330133  RH  100%=      5-min Rain = 0
KSB1 071256Z 08002KT 13/13 A3022 RMK A01 T01330133  RH  100%=      5-min Rain = 0
KSB1 071257Z 09002KT 13/13 A3022 RMK A01 T01330133  RH  100%=      5-min Rain = 0
KSB1 071258Z 10002KT 13/13 A3022 RMK A01 T01330133  RH  100%=      5-min Rain = 0
KSB1 071259Z 12003KT 13/13 A3022 RMK A01 T01330133  RH  100%=      5-min Rain = 0
KSB1 071300Z 11003KT 13/13 A3022 RMK A01 T01330133  RH  100%=      5-min Rain = 0
KSB1 071301Z 11002KT 13/13 A3022 RMK A01 T01330133  RH  100%=      5-min Rain = 0
KSB1 071302Z 11003KT 13/13 A3022 RMK A01 T01330133  RH  100%=      5-min Rain = 0
KSB1 071303Z 10003KT 13/13 A3022 RMK A01 T01330133  RH  100%=      5-min Rain = 0
KSB1 071304Z 09003KT 13/13 A3022 RMK A01 T01330133  RH  100%=      5-min Rain = 0
KSB1 071305Z 09004KT 13/13 A3022 RMK A01 T01330133  RH  100%=      5-min Rain = 0
KSB1 071306Z 09004KT 13/13 A3022 RMK A01 T01320132  RH  100%=      5-min Rain = 0
KSB1 071307Z 09004KT 13/13 A3022 RMK A01 T01320132  RH  100%=      5-min Rain = 0
KSB1 071308Z 09004KT 13/13 A3022 RMK A01 T01310131  RH  100%=      5-min Rain = 0
KSB1 071309Z 10004KT 13/13 A3022 RMK A01 T01310131  RH  100%=      5-min Rain = 0
KSB1 071310Z 10004KT 13/13 A3022 RMK A01 T01310131  RH  100%=      5-min Rain = 0
KSB1 071311Z 11004KT 13/13 A3022 RMK A01 T01300130  RH  100%=      5-min Rain = 0
KSB1 071312Z 11003KT 13/13 A3022 RMK A01 T01300130  RH  100%=      5-min Rain = 0
KSB1 071313Z 11003KT 13/13 A3023 RMK A01 T01300130  RH  100%=      5-min Rain = 0
KSB1 071314Z 11003KT 13/13 A3023 RMK A01 T01300130  RH  100%=      5-min Rain = 0
KSB1 071315Z 11002KT 13/13 A3023 RMK A01 T01300130  RH  100%=      5-min Rain = 0
KSB1 071316Z 11003KT 13/13 A3023 RMK A01 T01300130  RH  100%=      5-min Rain = 0
KSB1 071317Z 10002KT 13/13 A3023 RMK A01 T01300130  RH  100%=      5-min Rain = 0
KSB1 071318Z 10002KT 13/13 A3023 RMK A01 T01300130  RH  100%=      5-min Rain = 0
KSB1 071319Z 08002KT 13/13 A3023 RMK A01 T01290129  RH  100%=      5-min Rain = 0
KSB1 071320Z 07002KT 13/13 A3023 RMK A01 T01290129  RH  100%=      5-min Rain = 0
KSB1 071321Z 08002KT 13/13 A3023 RMK A01 T01280128  RH  100%=      5-min Rain = 0
KSB1 071322Z 08002KT 13/13 A3023 RMK A01 T01270127  RH  100%=      5-min Rain = 0
KSB1 071323Z 08002KT 13/13 A3024 RMK A01 T01270127  RH  100%=      5-min Rain = 0
KSB1 071324Z 06001KT 13/13 A3024 RMK A01 T01270127  RH  100%=      5-min Rain = 0
KSB1 071325Z 05001KT 13/13 A3024 RMK A01 T01270127  RH  100%=      5-min Rain = 0
KSB1 071326Z 05001KT 13/13 A3024 RMK A01 T01260126  RH  100%=      5-min Rain = 0
KSB1 071327Z 05001KT 13/13 A3024 RMK A01 T01260126  RH  100%=      5-min Rain = 0
KSB1 071328Z 05001KT 13/13 A3024 RMK A01 T01260126  RH  100%=      5-min Rain = 0
KSB1 071329Z 05001KT 13/13 A3024 RMK A01 T01270127  RH  100%=      5-min Rain = 0
KSB1 071330Z 04001KT 13/13 A3024 RMK A01 T01260126  RH  100%=      5-min Rain = 0
KSB1 071331Z 02001KT 13/13 A3024 RMK A01 T01260126  RH  100%=      5-min Rain = 0
KSB1 071332Z 01002KT 13/13 A3024 RMK A01 T01270127  RH  100%=      5-min Rain = 0
KSB1 071333Z 00002KT 13/13 A3024 RMK A01 T01270127  RH  100%=      5-min Rain = 0
KSB1 071334Z 36002KT 13/13 A3024 RMK A01 T01280127  RH  100%=      5-min Rain = 0
KSB1 071335Z 35002KT 13/13 A3024 RMK A01 T01280128  RH  100%=      5-min Rain = 0
KSB1 071336Z 34001KT 13/13 A3024 RMK A01 T01280128  RH  100%=      5-min Rain = 0
KSB1 071337Z 34000KT 13/13 A3024 RMK A01 T01290129  RH  100%=      5-min Rain = 0
KSB1 071338Z 00000KT 13/13 A3024 RMK A01 T01290129  RH  100%=      5-min Rain = 0
KSB1 071339Z 00000KT 13/13 A3024 RMK A01 T01290129  RH  100%=      5-min Rain = 0
KSB1 071340Z 00000KT 13/13 A3024 RMK A01 T01290129  RH  100%=      5-min Rain = 0
KSB1 071341Z 00000KT 13/13 A3024 RMK A01 T01290129  RH  100%=      5-min Rain = 0
KSB1 071342Z 00000KT 13/13 A3024 RMK A01 T01290129  RH  100%=      5-min Rain = 0
KSB1 071343Z 00000KT 13/13 A3024 RMK A01 T01300130  RH  100%=      5-min Rain = 0
KSB1 071344Z 00000KT 13/13 A3024 RMK A01 T01300130  RH  100%=      5-min Rain = 0
KSB1 071345Z 06001KT 13/13 A3024 RMK A01 T01300130  RH  100%=      5-min Rain = 0
KSB1 071346Z 05001KT 13/13 A3024 RMK A01 T01300130  RH  100%=      5-min Rain = 0
KSB1 071347Z 04001KT 13/13 A3024 RMK A01 T01300130  RH  100%=      5-min Rain = 0
KSB1 071348Z 03001KT 13/13 A3024 RMK A01 T01300130  RH  100%=      5-min Rain = 0
KSB1 071349Z 03001KT 13/13 A3025 RMK A01 T01300130  RH  100%=      5-min Rain = 0
KSB1 071350Z 08002KT 13/13 A3025 RMK A01 T01310131  RH  100%=      5-min Rain = 0
KSB1 071351Z 08002KT 13/13 A3025 RMK A01 T01310131  RH  100%=      5-min Rain = 0
KSB1 071352Z 09003KT 13/13 A3025 RMK A01 T01320132  RH  100%=      5-min Rain = 0
KSB1 071353Z 08002KT 13/13 A3025 RMK A01 T01320132  RH  100%=      5-min Rain = 0
KSB1 071354Z 08002KT 13/13 A3025 RMK A01 T01320132  RH  100%=      5-min Rain = 0
KSB1 071355Z 09003KT 13/13 A3025 RMK A01 T01320132  RH  100%=      5-min Rain = 0
KSB1 071356Z 08002KT 13/13 A3025 RMK A01 T01320132  RH  100%=      5-min Rain = 0
KSB1 071357Z 06003KT 13/13 A3025 RMK A01 T01320132  RH  100%=      5-min Rain = 0
KSB1 071358Z 08004KT 13/13 A3025 RMK A01 T01320132  RH  100%=      5-min Rain = 0
KSB1 071359Z 06004KT 13/13 A3025 RMK A01 T01320132  RH  100%=      5-min Rain = 0
KSB1 071400Z 06004KT 13/13 A3025 RMK A01 T01330133  RH  100%=      5-min Rain = 0
KSB1 071401Z 05004KT 13/13 A3025 RMK A01 T01320132  RH  100%=      5-min Rain = 0
KSB1 071402Z 05004KT 13/13 A3025 RMK A01 T01310131  RH  100%=      5-min Rain = 0
KSB1 071403Z 05004KT 13/13 A3025 RMK A01 T01310131  RH  100%=      5-min Rain = 0
KSB1 071404Z 05004KT 13/13 A3025 RMK A01 T01310131  RH  100%=      5-min Rain = 0
KSB1 071405Z 04004KT 13/13 A3025 RMK A01 T01310131  RH  100%=      5-min Rain = 0
KSB1 071406Z 04004KT 13/13 A3025 RMK A01 T01310131  RH  100%=      5-min Rain = 0
KSB1 071407Z 03004KT 13/13 A3025 RMK A01 T01310131  RH  100%=      5-min Rain = 0
KSB1 071408Z 04003KT 13/13 A3025 RMK A01 T01300130  RH  100%=      5-min Rain = 0
KSB1 071409Z 03003KT 13/13 A3026 RMK A01 T01310131  RH  100%=      5-min Rain = 0
KSB1 071410Z 03003KT 13/13 A3026 RMK A01 T01300130  RH  100%=      5-min Rain = 0
KSB1 071411Z 03003KT 13/13 A3026 RMK A01 T01310131  RH  100%=      5-min Rain = 0
KSB1 071412Z 04003KT 13/13 A3026 RMK A01 T01300130  RH  100%=      5-min Rain = 0
KSB1 071413Z 04003KT 13/13 A3026 RMK A01 T01310131  RH  100%=      5-min Rain = 0
KSB1 071414Z 05003KT 13/13 A3026 RMK A01 T01310131  RH  100%=      5-min Rain = 0
KSB1 071415Z 05003KT 13/13 A3026 RMK A01 T01310131  RH  100%=      5-min Rain = 0
KSB1 071416Z 04003KT 13/13 A3026 RMK A01 T01310131  RH  100%=      5-min Rain = 0
KSB1 071417Z 03002KT 13/13 A3026 RMK A01 T01310131  RH  100%=      5-min Rain = 0
KSB1 071418Z 03002KT 13/13 A3026 RMK A01 T01320132  RH  100%=      5-min Rain = 0
KSB1 071419Z 03002KT 13/13 A3026 RMK A01 T01320132  RH  100%=      5-min Rain = 0
KSB1 071420Z 02002KT 13/13 A3026 RMK A01 T01320132  RH  100%=      5-min Rain = 0
KSB1 071421Z 02002KT 13/13 A3026 RMK A01 T01320132  RH  100%=      5-min Rain = 0
KSB1 071422Z 02001KT 13/13 A3026 RMK A01 T01320132  RH  100%=      5-min Rain = 0
KSB1 071423Z 02002KT 13/13 A3026 RMK A01 T01320132  RH  100%=      5-min Rain = 0
KSB1 071424Z 04002KT 13/13 A3026 RMK A01 T01330133  RH  100%=      5-min Rain = 0
KSB1 071425Z 04002KT 13/13 A3026 RMK A01 T01330133  RH  100%=      5-min Rain = 0
KSB1 071426Z 04001KT 13/13 A3026 RMK A01 T01330133  RH  100%=      5-min Rain = 0
KSB1 071427Z 04001KT 13/13 A3026 RMK A01 T01340134  RH  100%=      5-min Rain = 0
KSB1 071428Z 06002KT 13/13 A3026 RMK A01 T01340134  RH  100%=      5-min Rain = 0
KSB1 071429Z 04002KT 13/13 A3026 RMK A01 T01340134  RH  100%=      5-min Rain = 0
KSB1 071430Z 05001KT 14/14 A3026 RMK A01 T01350135  RH  100%=      5-min Rain = 0
KSB1 071431Z 06002KT 14/14 A3026 RMK A01 T01350135  RH  100%=      5-min Rain = 0
KSB1 071432Z 08002KT 14/14 A3026 RMK A01 T01350135  RH  100%=      5-min Rain = 0
KSB1 071433Z 07001KT 14/14 A3027 RMK A01 T01350135  RH  100%=      5-min Rain = 0
KSB1 071434Z 06001KT 14/14 A3027 RMK A01 T01350135  RH  100%=      5-min Rain = 0
KSB1 071435Z 05001KT 14/14 A3027 RMK A01 T01350135  RH  100%=      5-min Rain = 0
KSB1 071436Z 08001KT 14/14 A3027 RMK A01 T01360136  RH  100%=      5-min Rain = 0
KSB1 071437Z 08000KT 14/14 A3027 RMK A01 T01360136  RH  100%=      5-min Rain = 0
KSB1 071438Z 09001KT 14/14 A3027 RMK A01 T01360136  RH  100%=      5-min Rain = 0
KSB1 071439Z 07001KT 14/14 A3027 RMK A01 T01360136  RH  100%=      5-min Rain = 0
KSB1 071440Z 06000KT 14/14 A3027 RMK A01 T01360136  RH  100%=      5-min Rain = 0
KSB1 071441Z 06000KT 14/14 A3027 RMK A01 T01360136  RH  100%=      5-min Rain = 0
KSB1 071442Z 09001KT 14/14 A3027 RMK A01 T01370137  RH  100%=      5-min Rain = 0
KSB1 071443Z 08002KT 14/14 A3027 RMK A01 T01370137  RH  100%=      5-min Rain = 0
KSB1 071444Z 07003KT 14/14 A3027 RMK A01 T01370137  RH  100%=      5-min Rain = 0
KSB1 071445Z 08002KT 14/14 A3027 RMK A01 T01370137  RH  100%=      5-min Rain = 0
KSB1 071446Z 10003KT 14/14 A3027 RMK A01 T01370137  RH  100%=      5-min Rain = 0
KSB1 071447Z 14004KT 14/14 A3027 RMK A01 T01370137  RH  100%=      5-min Rain = 0
KSB1 071448Z 11003KT 14/14 A3028 RMK A01 T01370137  RH  100%=      5-min Rain = 0
KSB1 071449Z 10003KT 14/14 A3028 RMK A01 T01380138  RH  100%=      5-min Rain = 0
KSB1 071450Z 10003KT 14/14 A3028 RMK A01 T01380138  RH  100%=      5-min Rain = 0
KSB1 071451Z 11003KT 14/14 A3028 RMK A01 T01380138  RH  100%=      5-min Rain = 0
KSB1 071452Z 10002KT 14/14 A3028 RMK A01 T01380138  RH  100%=      5-min Rain = 0
KSB1 071453Z 09003KT 14/14 A3028 RMK A01 T01380138  RH  100%=      5-min Rain = 0
KSB1 071454Z 10003KT 14/14 A3028 RMK A01 T01380138  RH  100%=      5-min Rain = 0
KSB1 071455Z 10003KT 14/14 A3028 RMK A01 T01380138  RH  100%=      5-min Rain = 0
KSB1 071456Z 08003KT 14/14 A3028 RMK A01 T01380139  RH  100%=      5-min Rain = 0
KSB1 071457Z 08002KT 14/14 A3028 RMK A01 T01380138  RH  100%=      5-min Rain = 0
KSB1 071458Z 09004KT 14/14 A3028 RMK A01 T01380138  RH  100%=      5-min Rain = 0
KSB1 071459Z 09004KT 14/14 A3028 RMK A01 T01380138  RH  100%=      5-min Rain = 0
KSB1 071500Z 09004KT 14/14 A3028 RMK A01 T01380138  RH  100%=      5-min Rain = 0
KSB1 071501Z 09004KT 14/14 A3028 RMK A01 T01380138  RH  100%=      5-min Rain = 0
KSB1 071502Z 09004KT 14/14 A3028 RMK A01 T01380138  RH  100%=      5-min Rain = 0
KSB1 071503Z 09004KT 14/14 A3028 RMK A01 T01390139  RH  100%=      5-min Rain = 0
KSB1 071504Z 09005KT 14/14 A3028 RMK A01 T01390139  RH  100%=      5-min Rain = 0
KSB1 071505Z 11005KT 14/14 A3028 RMK A01 T01390139  RH  100%=      5-min Rain = 0
KSB1 071506Z 09004KT 14/14 A3028 RMK A01 T01390139  RH  100%=      5-min Rain = 0
KSB1 071507Z 09005KT 14/14 A3028 RMK A01 T01390139  RH  100%=      5-min Rain = 0
KSB1 071508Z 09004KT 14/14 A3028 RMK A01 T01390139  RH  100%=      5-min Rain = 0
KSB1 071509Z 09004KT 14/14 A3028 RMK A01 T01390139  RH  100%=      5-min Rain = 0
KSB1 071510Z 09004KT 14/14 A3029 RMK A01 T01390139  RH  100%=      5-min Rain = 0
KSB1 071511Z 09005KT 14/14 A3029 RMK A01 T01400140  RH  100%=      5-min Rain = 0
KSB1 071512Z 09007KT 14/14 A3029 RMK A01 T01400140  RH  100%=      5-min Rain = 0
KSB1 071513Z 10008KT 14/14 A3029 RMK A01 T01400140  RH  100%=      5-min Rain = 0
KSB1 071514Z 10007KT 14/14 A3029 RMK A01 T01400140  RH  100%=      5-min Rain = 0
KSB1 071515Z 10005KT 14/14 A3029 RMK A01 T01400140  RH  100%=      5-min Rain = 0
KSB1 071516Z 11007KT 14/14 A3029 RMK A01 T01400140  RH  100%=      5-min Rain = 0
KSB1 071517Z 10006KT 14/14 A3029 RMK A01 T01400140  RH  100%=      5-min Rain = 0
KSB1 071518Z 11007KT 14/14 A3029 RMK A01 T01410141  RH  100%=      5-min Rain = 0
KSB1 071519Z 10007KT 14/14 A3029 RMK A01 T01410141  RH  100%=      5-min Rain = 0
KSB1 071520Z 11007KT 14/14 A3029 RMK A01 T01410141  RH  100%=      5-min Rain = 0
KSB1 071521Z 11007KT 14/14 A3029 RMK A01 T01420142  RH  100%=      5-min Rain = 0
KSB1 071522Z 11006KT 14/14 A3029 RMK A01 T01420142  RH  100%=      5-min Rain = 0
KSB1 071523Z 11007KT 14/14 A3029 RMK A01 T01420142  RH  100%=      5-min Rain = 0
KSB1 071524Z 10007KT 14/14 A3029 RMK A01 T01420142  RH  100%=      5-min Rain = 0
KSB1 071525Z 11008KT 14/14 A3029 RMK A01 T01420142  RH  100%=      5-min Rain = 0
KSB1 071526Z 11009KT 14/14 A3029 RMK A01 T01420142  RH  100%=      5-min Rain = 0
KSB1 071527Z 11010KT 14/14 A303 RMK A01 T01430143  RH  100%=      5-min Rain = 0
KSB1 071528Z 12010KT 14/14 A303 RMK A01 T01430143  RH  100%=      5-min Rain = 0
KSB1 071529Z 12011KT 14/14 A303 RMK A01 T01430142  RH  100%=      5-min Rain = 0
KSB1 071530Z 12009KT 14/14 A303 RMK A01 T01430143  RH  099%=      5-min Rain = 0
KSB1 071531Z 13008KT 14/14 A303 RMK A01 T01440143  RH  099%=      5-min Rain = 0
KSB1 071532Z 13007KT 14/14 A303 RMK A01 T01440143  RH  099%=      5-min Rain = 0
KSB1 071533Z 11006KT 14/14 A303 RMK A01 T01440142  RH  099%=      5-min Rain = 0
KSB1 071534Z 11005KT 14/14 A303 RMK A01 T01440142  RH  099%=      5-min Rain = 0
KSB1 071535Z 12005KT 15/14 A303 RMK A01 T01450143  RH  099%=      5-min Rain = 0
KSB1 071536Z 12003KT 15/14 A303 RMK A01 T01450143  RH  099%=      5-min Rain = 0
KSB1 071537Z 12003KT 15/14 A303 RMK A01 T01450143  RH  099%=      5-min Rain = 0
KSB1 071538Z 12006KT 15/14 A303 RMK A01 T01450143  RH  099%=      5-min Rain = 0
KSB1 071539Z 13009KT 15/14 A3029 RMK A01 T01450143  RH  099%=      5-min Rain = 0
KSB1 071540Z 12011KT 15/14 A3029 RMK A01 T01450143  RH  098%=      5-min Rain = 0
KSB1 071541Z 13011KT 15/14 A3029 RMK A01 T01450143  RH  098%=      5-min Rain = 0
KSB1 071542Z 13011KT 15/14 A3029 RMK A01 T01450142  RH  098%=      5-min Rain = 0
KSB1 071543Z 12011KT 15/14 A3029 RMK A01 T01460142  RH  098%=      5-min Rain = 0
KSB1 071544Z 12011KT 15/14 A3029 RMK A01 T01460142  RH  097%=      5-min Rain = 0
KSB1 071545Z 12009KT 15/14 A3029 RMK A01 T01460142  RH  097%=      5-min Rain = 0
KSB1 071546Z 12010KT 15/14 A3029 RMK A01 T01470142  RH  097%=      5-min Rain = 0
KSB1 071547Z 11013KT 15/14 A3029 RMK A01 T01470141  RH  096%=      5-min Rain = 0
KSB1 071548Z 12012KT 15/14 A303 RMK A01 T01470140  RH  095%=      5-min Rain = 0
KSB1 071549Z 11011KT 15/14 A303 RMK A01 T01470140  RH  095%=      5-min Rain = 0
KSB1 071550Z 13011KT 15/14 A303 RMK A01 T01480140  RH  095%=      5-min Rain = 0
KSB1 071551Z 11011KT 15/14 A303 RMK A01 T01480139  RH  094%=      5-min Rain = 0
KSB1 071552Z 12010KT 15/14 A303 RMK A01 T01490139  RH  094%=      5-min Rain = 0
KSB1 071553Z 12013KT 15/14 A303 RMK A01 T01490139  RH  093%=      5-min Rain = 0
KSB1 071554Z 12014KT 15/14 A303 RMK A01 T01490137  RH  092%=      5-min Rain = 0
KSB1 071555Z 12015KT 15/14 A303 RMK A01 T01490135  RH  092%=      5-min Rain = 0
KSB1 071556Z 11014KT 15/14 A303 RMK A01 T01490135  RH  091%=      5-min Rain = 0
KSB1 071557Z 12016KT 15/14 A303 RMK A01 T01490135  RH  092%=      5-min Rain = 0
KSB1 071558Z 13014KT 15/13 A303 RMK A01 T01480134  RH  091%=      5-min Rain = 0
KSB1 071559Z 12016KT 15/13 A303 RMK A01 T01480134  RH  092%=      5-min Rain = 0
KSB1 071600Z 12015KT 15/13 A303 RMK A01 T01460131  RH  091%=      5-min Rain = 0
KSB1 071601Z 12015KT 15/13 A303 RMK A01 T01450131  RH  091%=      5-min Rain = 0
KSB1 071602Z 12012KT 14/13 A303 RMK A01 T01440131  RH  092%=      5-min Rain = 0
KSB1 071603Z 12018KT 14/13 A3031 RMK A01 T01430130  RH  092%=      5-min Rain = 0
KSB1 071604Z 12014KT 14/13 A3031 RMK A01 T01400126  RH  091%=      5-min Rain = 0
KSB1 071605Z 13014KT 14/13 A3031 RMK A01 T01390126  RH  092%=      5-min Rain = 0
KSB1 071606Z 12017KT 14/13 A3031 RMK A01 T01380125  RH  092%=      5-min Rain = 0
KSB1 071607Z 12011KT 14/12 A3031 RMK A01 T01360123  RH  092%=      5-min Rain = 0
KSB1 071608Z 12012KT 14/13 A3031 RMK A01 T01360125  RH  093%=      5-min Rain = 0
KSB1 071609Z 12011G17KT 14/13 A3031 RMK A01 T01360125  RH  093%=      5-min Rain = 0
KSB1 071610Z 12016KT 14/12 A3031 RMK A01 T01360124  RH  093%=      5-min Rain = 0
KSB1 071611Z 12014KT 14/12 A3031 RMK A01 T01350121  RH  091%=      5-min Rain = 0
KSB1 071612Z 12014KT 14/12 A3031 RMK A01 T01350120  RH  091%=      5-min Rain = 0
KSB1 071613Z 12016KT 14/12 A3031 RMK A01 T01350119  RH  090%=      5-min Rain = 0
KSB1 071614Z 12014KT 14/12 A3031 RMK A01 T01350117  RH  089%=      5-min Rain = 0
KSB1 071615Z 12014KT 14/12 A3031 RMK A01 T01350117  RH  089%=      5-min Rain = 0
KSB1 071616Z 13012KT 14/12 A3031 RMK A01 T01350117  RH  089%=      5-min Rain = 0
KSB1 071617Z 12012KT 14/12 A3031 RMK A01 T01350119  RH  090%=      5-min Rain = 0
KSB1 071618Z 12016KT 14/12 A3031 RMK A01 T01350118  RH  089%=      5-min Rain = 0
KSB1 071619Z 12015KT 13/12 A3031 RMK A01 T01340116  RH  088%=      5-min Rain = 0
KSB1 071620Z 12014KT 13/12 A3031 RMK A01 T01330116  RH  089%=      5-min Rain = 0
KSB1 071621Z 13014KT 13/12 A3032 RMK A01 T01330117  RH  090%=      5-min Rain = 0
KSB1 071622Z 13014G19KT 13/12 A3032 RMK A01 T01330115  RH  089%=      5-min Rain = 0
KSB1 071623Z 13014KT 13/11 A3032 RMK A01 T01320114  RH  088%=      5-min Rain = 0
KSB1 071624Z 12015KT 13/11 A3032 RMK A01 T01320112  RH  088%=      5-min Rain = 0
KSB1 071625Z 13016KT 13/11 A3032 RMK A01 T01310112  RH  088%=      5-min Rain = 0
KSB1 071626Z 12014KT 13/11 A3032 RMK A01 T01310112  RH  088%=      5-min Rain = 0
KSB1 071627Z 11016KT 13/11 A3032 RMK A01 T01300110  RH  088%=      5-min Rain = 0
KSB1 071628Z 12016KT 13/11 A3032 RMK A01 T01300110  RH  088%=      5-min Rain = 0
KSB1 071629Z 12016KT 13/11 A3032 RMK A01 T01290110  RH  088%=      5-min Rain = 0
KSB1 071630Z 12015KT 13/11 A3032 RMK A01 T01280110  RH  089%=      5-min Rain = 0
KSB1 071631Z 12016KT 13/11 A3031 RMK A01 T01270109  RH  089%=      5-min Rain = 0
KSB1 071632Z 11018KT 13/11 A3031 RMK A01 T01270108  RH  089%=      5-min Rain = 0
KSB1 071633Z 11016KT 13/11 A3031 RMK A01 T01250107  RH  088%=      5-min Rain = 0
KSB1 071634Z 12016G23KT 13/11 A3031 RMK A01 T01250108  RH  089%=      5-min Rain = 0
KSB1 071635Z 12017KT 12/11 A3031 RMK A01 T01240106  RH  089%=      5-min Rain = 0
KSB1 071636Z 12016KT 12/10 A3031 RMK A01 T01230104  RH  088%=      5-min Rain = 0
KSB1 071637Z 13013KT 12/11 A3031 RMK A01 T01220105  RH  089%=      5-min Rain = 0
KSB1 071638Z 13014KT 12/11 A3031 RMK A01 T01220106  RH  090%=      5-min Rain = 0
KSB1 071639Z 13014KT 12/11 A3031 RMK A01 T01220105  RH  089%=      5-min Rain = 0
KSB1 071640Z 12014G19KT 12/10 A3032 RMK A01 T01220103  RH  088%=      5-min Rain = 0
KSB1 071641Z 12015KT 12/10 A3032 RMK A01 T01220104  RH  089%=      5-min Rain = 0
KSB1 071642Z 12015KT 12/10 A3032 RMK A01 T01220103  RH  089%=      5-min Rain = 0
KSB1 071643Z 12015KT 12/10 A3032 RMK A01 T01210103  RH  088%=      5-min Rain = 0
KSB1 071644Z 13016KT 12/10 A3032 RMK A01 T01210101  RH  087%=      5-min Rain = 0
KSB1 071645Z 12016KT 12/10 A3032 RMK A01 T01200098  RH  087%=      5-min Rain = 0
KSB1 071646Z 12012KT 12/10 A3032 RMK A01 T01190098  RH  087%=      5-min Rain = 0
KSB1 071647Z 12013KT 12/10 A3032 RMK A01 T01190099  RH  087%=      5-min Rain = 0
KSB1 071648Z 12016KT 12/10 A3032 RMK A01 T01180095  RH  086%=      5-min Rain = 0
KSB1 071649Z 12013G19KT 12/09 A3032 RMK A01 T01160093  RH  086%=      5-min Rain = 0
KSB1 071650Z 12014KT 12/09 A3032 RMK A01 T01150093  RH  086%=      5-min Rain = 0
KSB1 071651Z 11013KT 11/09 A3032 RMK A01 T01140093  RH  087%=      5-min Rain = 0
KSB1 071652Z 11015KT 11/09 A3032 RMK A01 T01140093  RH  087%=      5-min Rain = 0
KSB1 071653Z 13013KT 11/09 A3032 RMK A01 T01130092  RH  087%=      5-min Rain = 0
KSB1 071654Z 12015KT 11/09 A3032 RMK A01 T01130091  RH  087%=      5-min Rain = 0
KSB1 071655Z 12014KT 11/09 A3032 RMK A01 T01120090  RH  086%=      5-min Rain = 0
KSB1 071656Z 12016G21KT 11/09 A3033 RMK A01 T01110089  RH  086%=      5-min Rain = 0
KSB1 071657Z 12016KT 11/09 A3033 RMK A01 T01100087  RH  086%=      5-min Rain = 0
KSB1 071658Z 12016KT 11/09 A3033 RMK A01 T01080086  RH  086%=      5-min Rain = 0
KSB1 071659Z 12015KT 11/09 A3033 RMK A01 T01080086  RH  087%=      5-min Rain = 0
KSB1 071700Z 12016KT 11/09 A3033 RMK A01 T01070086  RH  087%=      5-min Rain = 0
KSB1 071701Z 13014G19KT 11/09 A3033 RMK A01 T01060086  RH  087%=      5-min Rain = 0
KSB1 071702Z 12015KT 11/09 A3033 RMK A01 T01060085  RH  087%=      5-min Rain = 0
KSB1 071703Z 12017KT 11/09 A3033 RMK A01 T01050085  RH  087%=      5-min Rain = 0
KSB1 071704Z 12017KT 10/08 A3033 RMK A01 T01040083  RH  087%=      5-min Rain = 0
KSB1 071705Z 12015KT 10/08 A3033 RMK A01 T01030083  RH  087%=      5-min Rain = 0
KSB1 071706Z 11017KT 10/08 A3033 RMK A01 T01030084  RH  088%=      5-min Rain = 0
KSB1 071707Z 12017KT 10/08 A3033 RMK A01 T01030083  RH  088%=      5-min Rain = 0
KSB1 071708Z 12017KT 10/08 A3033 RMK A01 T01010082  RH  088%=      5-min Rain = 0
KSB1 071709Z 12016KT 10/08 A3033 RMK A01 T01010082  RH  088%=      5-min Rain = 0
KSB1 071710Z 12017KT 10/08 A3033 RMK A01 T01010082  RH  088%=      5-min Rain = 0
KSB1 071711Z 12016KT 10/08 A3033 RMK A01 T01000081  RH  088%=      5-min Rain = 0
KSB1 071712Z 12015KT 10/08 A3033 RMK A01 T01000082  RH  088%=      5-min Rain = 0
KSB1 071713Z 12020KT 10/08 A3033 RMK A01 T01000080  RH  087%=      5-min Rain = 0
KSB1 071714Z 12019KT 10/08 A3033 RMK A01 T00980078  RH  087%=      5-min Rain = 0
KSB1 071715Z 12016KT 10/08 A3034 RMK A01 T00970079  RH  088%=      5-min Rain = 0
KSB1 071716Z 12017KT 10/08 A3034 RMK A01 T00970079  RH  089%=      5-min Rain = 0
KSB1 071717Z 12016KT 10/08 A3034 RMK A01 T00970079  RH  088%=      5-min Rain = 0
KSB1 071718Z 12018KT 10/08 A3034 RMK A01 T00960078  RH  088%=      5-min Rain = 0
KSB1 071719Z 12015KT 10/08 A3034 RMK A01 T00960078  RH  088%=      5-min Rain = 0
KSB1 071720Z 12015KT 10/08 A3034 RMK A01 T00950078  RH  089%=      5-min Rain = 0
KSB1 071721Z 11016KT 10/08 A3034 RMK A01 T00950077  RH  089%=      5-min Rain = 0
KSB1 071722Z 12017KT 10/08 A3034 RMK A01 T00950077  RH  089%=      5-min Rain = 0
KSB1 071723Z 12014KT 09/08 A3034 RMK A01 T00940077  RH  089%=      5-min Rain = 0
KSB1 071724Z 12013KT 09/08 A3034 RMK A01 T00940077  RH  089%=      5-min Rain = 0
KSB1 071725Z 11015KT 09/08 A3034 RMK A01 T00940078  RH  089%=      5-min Rain = 0
KSB1 071726Z 11015KT 09/08 A3035 RMK A01 T00940076  RH  089%=      5-min Rain = 0
KSB1 071727Z 11014KT 09/08 A3035 RMK A01 T00930075  RH  089%=      5-min Rain = 0
KSB1 071728Z 11013KT 09/08 A3035 RMK A01 T00930076  RH  089%=      5-min Rain = 0
KSB1 071729Z 13012G18KT 09/08 A3035 RMK A01 T00920076  RH  090%=      5-min Rain = 0
KSB1 071730Z 12011KT 09/08 A3035 RMK A01 T00930076  RH  089%=      5-min Rain = 0
KSB1 071731Z 13012G19KT 09/08 A3035 RMK A01 T00930076  RH  089%=      5-min Rain = 0
KSB1 071732Z 12014KT 09/08 A3034 RMK A01 T00930075  RH  089%=      5-min Rain = 0
KSB1 071733Z 12014KT 09/07 A3034 RMK A01 T00920074  RH  088%=      5-min Rain = 0
KSB1 071734Z 12017KT 09/07 A3034 RMK A01 T00920074  RH  089%=      5-min Rain = 0
KSB1 071735Z 12015KT 09/07 A3034 RMK A01 T00910072  RH  088%=      5-min Rain = 0
KSB1 071736Z 11015KT 09/07 A3034 RMK A01 T00900073  RH  089%=      5-min Rain = 0
KSB1 071737Z 12013KT 09/07 A3034 RMK A01 T00900073  RH  089%=      5-min Rain = 0
KSB1 071738Z 12018KT 09/07 A3034 RMK A01 T00900073  RH  089%=      5-min Rain = 0
KSB1 071739Z 12018G23KT 09/07 A3034 RMK A01 T00890072  RH  089%=      5-min Rain = 0
KSB1 071740Z 11016KT 09/07 A3034 RMK A01 T00890071  RH  089%=      5-min Rain = 0
KSB1 071741Z 11016KT 09/07 A3034 RMK A01 T00880072  RH  089%=      5-min Rain = 0
KSB1 071742Z 11013G18KT 09/07 A3034 RMK A01 T00880072  RH  090%=      5-min Rain = 0
KSB1 071743Z 11018KT 09/07 A3034 RMK A01 T00880072  RH  089%=      5-min Rain = 0
KSB1 071744Z 12016KT 09/07 A3034 RMK A01 T00880071  RH  089%=      5-min Rain = 0
KSB1 071745Z 12014KT 09/07 A3034 RMK A01 T00870070  RH  089%=      5-min Rain = 0
KSB1 071746Z 12015KT 09/07 A3034 RMK A01 T00870070  RH  089%=      5-min Rain = 0
KSB1 071747Z 12016KT 09/07 A3034 RMK A01 T00870070  RH  090%=      5-min Rain = 0
KSB1 071748Z 12017KT 09/07 A3034 RMK A01 T00860070  RH  089%=      5-min Rain = 0
KSB1 071749Z 12016KT 09/07 A3034 RMK A01 T00860069  RH  090%=      5-min Rain = 0
KSB1 071750Z 11019KT 09/07 A3034 RMK A01 T00860070  RH  090%=      5-min Rain = 0
KSB1 071751Z 11017G22KT 09/07 A3034 RMK A01 T00850069  RH  090%=      5-min Rain = 0
KSB1 071752Z 11015KT 08/07 A3034 RMK A01 T00840069  RH  090%=      5-min Rain = 0
KSB1 071753Z 11015KT 08/07 A3034 RMK A01 T00840069  RH  090%=      5-min Rain = 0
KSB1 071754Z 11017KT 08/07 A3034 RMK A01 T00840069  RH  090%=      5-min Rain = 0
KSB1 071755Z 12016G21KT 08/07 A3034 RMK A01 T00840068  RH  090%=      5-min Rain = 0
KSB1 071756Z 12016G21KT 08/07 A3034 RMK A01 T00840068  RH  090%=      5-min Rain = 0
KSB1 071757Z 12014KT 08/07 A3034 RMK A01 T00840069  RH  090%=      5-min Rain = 0
KSB1 071758Z 12015G20KT 08/07 A3034 RMK A01 T00840069  RH  090%=      5-min Rain = 0
KSB1 071759Z 12018KT 08/07 A3034 RMK A01 T00840068  RH  090%=      5-min Rain = 0
KSB1 071800Z 12014KT 08/07 A3034 RMK A01 T00840068  RH  090%=      5-min Rain = 0
KSB1 071801Z 12015G20KT 08/07 A3034 RMK A01 T00840069  RH  091%=      5-min Rain = 0
KSB1 071802Z 12016KT 08/07 A3034 RMK A01 T00840069  RH  090%=      5-min Rain = 0
KSB1 071803Z 12015KT 08/07 A3034 RMK A01 T00840068  RH  090%=      5-min Rain = 0
KSB1 071804Z 12019KT 08/07 A3034 RMK A01 T00840068  RH  089%=      5-min Rain = 0
KSB1 071805Z 12018KT 08/07 A3034 RMK A01 T00840066  RH  089%=      5-min Rain = 0
KSB1 071806Z 12018KT 08/07 A3034 RMK A01 T00840067  RH  089%=      5-min Rain = 0
KSB1 071807Z 12016KT 08/07 A3034 RMK A01 T00840067  RH  089%=      5-min Rain = 0
KSB1 071808Z 12017KT 08/07 A3034 RMK A01 T00840067  RH  089%=      5-min Rain = 0
KSB1 071809Z 12016KT 08/07 A3033 RMK A01 T00840067  RH  089%=      5-min Rain = 0
KSB1 071810Z 11017G22KT 08/07 A3033 RMK A01 T00840068  RH  089%=      5-min Rain = 0
KSB1 071811Z 12016KT 09/07 A3033 RMK A01 T00850067  RH  089%=      5-min Rain = 0
KSB1 071812Z 11018KT 08/07 A3033 RMK A01 T00840067  RH  089%=      5-min Rain = 0
KSB1 071813Z 12016KT 08/07 A3033 RMK A01 T00830066  RH  089%=      5-min Rain = 0
KSB1 071814Z 12015G21KT 08/07 A3034 RMK A01 T00830066  RH  089%=      5-min Rain = 0
KSB1 071815Z 12014G19KT 08/07 A3034 RMK A01 T00830066  RH  089%=      5-min Rain = 0
KSB1 071816Z 12014KT 08/07 A3034 RMK A01 T00840068  RH  089%=      5-min Rain = 0
KSB1 071817Z 12014KT 08/07 A3034 RMK A01 T00840067  RH  089%=      5-min Rain = 0
KSB1 071818Z 11015G20KT 08/07 A3033 RMK A01 T00840067  RH  089%=      5-min Rain = 0
KSB1 071819Z 11017KT 08/07 A3033 RMK A01 T00840066  RH  089%=      5-min Rain = 0
KSB1 071820Z 11013KT 08/07 A3034 RMK A01 T00830066  RH  089%=      5-min Rain = 0
KSB1 071821Z 12016KT 08/07 A3034 RMK A01 T00840067  RH  089%=      5-min Rain = 0
KSB1 071822Z 12015KT 08/07 A3034 RMK A01 T00840066  RH  089%=      5-min Rain = 0
KSB1 071823Z 11015KT 08/07 A3034 RMK A01 T00840067  RH  089%=      5-min Rain = 0
KSB1 071824Z 11015KT 08/07 A3034 RMK A01 T00830066  RH  089%=      5-min Rain = 0
KSB1 071825Z 12017KT 08/07 A3034 RMK A01 T00830065  RH  089%=      5-min Rain = 0
KSB1 071826Z 12014KT 08/06 A3034 RMK A01 T00820064  RH  088%=      5-min Rain = 0
KSB1 071827Z 11015KT 08/06 A3034 RMK A01 T00820064  RH  088%=      5-min Rain = 0
KSB1 071828Z 12013KT 08/06 A3034 RMK A01 T00820064  RH  089%=      5-min Rain = 0
KSB1 071829Z 11015KT 08/06 A3034 RMK A01 T00820064  RH  089%=      5-min Rain = 0
KSB1 071830Z 12016KT 08/06 A3034 RMK A01 T00820064  RH  088%=      5-min Rain = 0
KSB1 071831Z 12014KT 08/06 A3034 RMK A01 T00820064  RH  088%=      5-min Rain = 0
KSB1 071832Z 11013KT 08/06 A3034 RMK A01 T00820063  RH  088%=      5-min Rain = 0
KSB1 071833Z 11017KT 08/06 A3034 RMK A01 T00810063  RH  088%=      5-min Rain = 0
KSB1 071834Z 11016KT 08/06 A3034 RMK A01 T00810062  RH  088%=      5-min Rain = 0
KSB1 071835Z 11017G22KT 08/06 A3034 RMK A01 T00810062  RH  088%=      5-min Rain = 0
KSB1 071836Z 11017KT 08/06 A3034 RMK A01 T00820061  RH  087%=      5-min Rain = 0
KSB1 071837Z 11016KT 08/06 A3034 RMK A01 T00810061  RH  087%=      5-min Rain = 0
KSB1 071838Z 12017KT 08/06 A3034 RMK A01 T00810060  RH  087%=      5-min Rain = 0
KSB1 071839Z 12019KT 08/06 A3034 RMK A01 T00810059  RH  086%=      5-min Rain = 0
KSB1 071840Z 12015KT 08/06 A3034 RMK A01 T00800058  RH  086%=      5-min Rain = 0
KSB1 071841Z 12015KT 08/06 A3034 RMK A01 T00800059  RH  087%=      5-min Rain = 0
KSB1 071842Z 12016KT 08/06 A3034 RMK A01 T00800059  RH  086%=      5-min Rain = 0
KSB1 071843Z 11015KT 08/06 A3034 RMK A01 T00810059  RH  087%=      5-min Rain = 0
KSB1 071844Z 12017KT 08/06 A3034 RMK A01 T00810060  RH  086%=      5-min Rain = 0
KSB1 071845Z 12018KT 08/06 A3034 RMK A01 T00810058  RH  085%=      5-min Rain = 0
KSB1 071846Z 11013KT 08/06 A3034 RMK A01 T00810058  RH  086%=      5-min Rain = 0
KSB1 071847Z 12015KT 08/06 A3034 RMK A01 T00810059  RH  086%=      5-min Rain = 0
KSB1 071848Z 12016KT 08/06 A3034 RMK A01 T00820059  RH  085%=      5-min Rain = 0
KSB1 071849Z 12014KT 08/06 A3034 RMK A01 T00810057  RH  085%=      5-min Rain = 0
KSB1 071850Z 11017KT 08/06 A3034 RMK A01 T00810058  RH  085%=      5-min Rain = 0
KSB1 071851Z 12015KT 08/06 A3034 RMK A01 T00820058  RH  085%=      5-min Rain = 0
KSB1 071852Z 11017KT 08/06 A3034 RMK A01 T00820058  RH  085%=      5-min Rain = 0
KSB1 071853Z 12015KT 08/06 A3034 RMK A01 T00820057  RH  084%=      5-min Rain = 0
KSB1 071854Z 12016KT 08/06 A3034 RMK A01 T00830057  RH  084%=      5-min Rain = 0
KSB1 071855Z 13016KT 08/06 A3034 RMK A01 T00830056  RH  083%=      5-min Rain = 0
KSB1 071856Z 13017KT 08/06 A3034 RMK A01 T00820055  RH  083%=      5-min Rain = 0
KSB1 071857Z 13016KT 08/06 A3034 RMK A01 T00830056  RH  083%=      5-min Rain = 0
KSB1 071858Z 13018KT 08/06 A3034 RMK A01 T00820055  RH  083%=      5-min Rain = 0
KSB1 071859Z 13017KT 08/06 A3034 RMK A01 T00820055  RH  083%=      5-min Rain = 0
KSB1 071900Z 13016KT 08/05 A3034 RMK A01 T00830054  RH  082%=      5-min Rain = 0
KSB1 071901Z 13016KT 08/06 A3034 RMK A01 T00830055  RH  083%=      5-min Rain = 0
KSB1 071902Z 13016KT 08/06 A3034 RMK A01 T00830055  RH  082%=      5-min Rain = 0
KSB1 071903Z 13017KT 08/06 A3034 RMK A01 T00840055  RH  082%=      5-min Rain = 0
KSB1 071904Z 13017KT 08/05 A3034 RMK A01 T00840054  RH  081%=      5-min Rain = 0
KSB1 071905Z 13015KT 09/05 A3034 RMK A01 T00850054  RH  081%=      5-min Rain = 0
KSB1 071906Z 13014G19KT 09/06 A3034 RMK A01 T00850055  RH  081%=      5-min Rain = 0
KSB1 071907Z 13017KT 09/06 A3034 RMK A01 T00860055  RH  081%=      5-min Rain = 0
KSB1 071908Z 12015KT 09/06 A3034 RMK A01 T00860055  RH  081%=      5-min Rain = 0
KSB1 071909Z 12016KT 09/06 A3034 RMK A01 T00860056  RH  081%=      5-min Rain = 0
KSB1 071910Z 12015KT 09/06 A3034 RMK A01 T00860056  RH  081%=      5-min Rain = 0
KSB1 071911Z 12016KT 09/06 A3034 RMK A01 T00870055  RH  080%=      5-min Rain = 0
KSB1 071912Z 12014KT 09/05 A3034 RMK A01 T00870054  RH  080%=      5-min Rain = 0
KSB1 071913Z 12012KT 09/06 A3034 RMK A01 T00870055  RH  080%=      5-min Rain = 0
KSB1 071914Z 13017KT 09/06 A3034 RMK A01 T00880055  RH  080%=      5-min Rain = 0
KSB1 071915Z 12017KT 09/05 A3034 RMK A01 T00870052  RH  079%=      5-min Rain = 0
KSB1 071916Z 12015KT 09/05 A3034 RMK A01 T00860052  RH  079%=      5-min Rain = 0
KSB1 071917Z 12016KT 09/05 A3033 RMK A01 T00860052  RH  079%=      5-min Rain = 0
KSB1 071918Z 12016KT 09/05 A3033 RMK A01 T00850052  RH  079%=      5-min Rain = 0
KSB1 071919Z 12016KT 08/05 A3033 RMK A01 T00840050  RH  079%=      5-min Rain = 0
KSB1 071920Z 12016KT 08/05 A3033 RMK A01 T00830051  RH  080%=      5-min Rain = 0
KSB1 071921Z 12014KT 08/05 A3033 RMK A01 T00840051  RH  080%=      5-min Rain = 0
KSB1 071922Z 12016KT 08/05 A3033 RMK A01 T00840052  RH  080%=      5-min Rain = 0
KSB1 071923Z 12016KT 08/05 A3033 RMK A01 T00840050  RH  079%=      5-min Rain = 0
KSB1 071924Z 11017KT 08/05 A3033 RMK A01 T00830049  RH  079%=      5-min Rain = 0
KSB1 071925Z 11015KT 08/05 A3033 RMK A01 T00820049  RH  079%=      5-min Rain = 0
KSB1 071926Z 12015KT 08/05 A3033 RMK A01 T00810049  RH  080%=      5-min Rain = 0
KSB1 071927Z 12012G18KT 08/05 A3033 RMK A01 T00830052  RH  081%=      5-min Rain = 0
KSB1 071928Z 12016KT 08/05 A3033 RMK A01 T00840052  RH  080%=      5-min Rain = 0
KSB1 071929Z 12016KT 08/05 A3033 RMK A01 T00840049  RH  079%=      5-min Rain = 0
KSB1 071930Z 12017KT 08/05 A3033 RMK A01 T00830048  RH  079%=      5-min Rain = 0
KSB1 071931Z 12017KT 08/05 A3033 RMK A01 T00820047  RH  079%=      5-min Rain = 0
KSB1 071932Z 12015KT 08/05 A3033 RMK A01 T00810047  RH  079%=      5-min Rain = 0
KSB1 071933Z 12017KT 08/05 A3032 RMK A01 T00820048  RH  079%=      5-min Rain = 0
KSB1 071934Z 13015KT 08/05 A3032 RMK A01 T00820048  RH  079%=      5-min Rain = 0
KSB1 071935Z 12017KT 08/05 A3032 RMK A01 T00830048  RH  079%=      5-min Rain = 0
KSB1 071936Z 12012KT 08/05 A3032 RMK A01 T00840048  RH  078%=      5-min Rain = 0
KSB1 071937Z 11014G19KT 09/05 A3032 RMK A01 T00850050  RH  078%=      5-min Rain = 0
KSB1 071938Z 12015KT 09/05 A3032 RMK A01 T00860049  RH  078%=      5-min Rain = 0
KSB1 071939Z 13016KT 09/05 A3032 RMK A01 T00850049  RH  078%=      5-min Rain = 0
KSB1 071940Z 13015KT 09/05 A3032 RMK A01 T00850048  RH  077%=      5-min Rain = 0
KSB1 071941Z 12013KT 09/05 A3032 RMK A01 T00850049  RH  078%=      5-min Rain = 0
KSB1 071942Z 12015KT 09/05 A3032 RMK A01 T00860049  RH  078%=      5-min Rain = 0
KSB1 071943Z 12016KT 09/05 A3032 RMK A01 T00870049  RH  077%=      5-min Rain = 0
KSB1 071944Z 12015KT 09/05 A3032 RMK A01 T00860048  RH  077%=      5-min Rain = 0
KSB1 071945Z 12016KT 09/05 A3032 RMK A01 T00860047  RH  077%=      5-min Rain = 0
KSB1 071946Z 12012KT 09/05 A3032 RMK A01 T00850047  RH  077%=      5-min Rain = 0
KSB1 071947Z 12015KT 09/05 A3032 RMK A01 T00860048  RH  077%=      5-min Rain = 0
KSB1 071948Z 12015KT 09/05 A3032 RMK A01 T00860048  RH  077%=      5-min Rain = 0
KSB1 071949Z 12017KT 09/05 A3032 RMK A01 T00860047  RH  077%=      5-min Rain = 0
KSB1 071950Z 12016KT 09/05 A3032 RMK A01 T00850046  RH  076%=      5-min Rain = 0
KSB1 071951Z 12015KT 08/05 A3032 RMK A01 T00830045  RH  077%=      5-min Rain = 0
KSB1 071952Z 11013KT 08/05 A3031 RMK A01 T00840048  RH  078%=      5-min Rain = 0
KSB1 071953Z 12015KT 09/05 A3031 RMK A01 T00860049  RH  077%=      5-min Rain = 0
KSB1 071954Z 12014KT 09/05 A3031 RMK A01 T00870048  RH  077%=      5-min Rain = 0
KSB1 071955Z 11015KT 09/05 A3031 RMK A01 T00860047  RH  077%=      5-min Rain = 0
KSB1 071956Z 12013KT 09/05 A3032 RMK A01 T00860048  RH  077%=      5-min Rain = 0
KSB1 071957Z 12012G17KT 09/05 A3032 RMK A01 T00870050  RH  077%=      5-min Rain = 0
KSB1 071958Z 11015KT 09/05 A3032 RMK A01 T00890050  RH  077%=      5-min Rain = 0
KSB1 071959Z 12014KT 09/05 A3032 RMK A01 T00880048  RH  076%=      5-min Rain = 0
KSB1 072000Z 12011G16KT 09/05 A3032 RMK A01 T00880049  RH  077%=      5-min Rain = 0
KSB1 072001Z 12014KT 09/05 A3032 RMK A01 T00870048  RH  076%=      5-min Rain = 0
KSB1 072002Z 12014KT 09/05 A3032 RMK A01 T00860047  RH  076%=      5-min Rain = 0
KSB1 072003Z 13016KT 09/05 A3032 RMK A01 T00850047  RH  077%=      5-min Rain = 0
KSB1 072004Z 12015KT 08/05 A3032 RMK A01 T00840046  RH  077%=      5-min Rain = 0
KSB1 072005Z 11017KT 08/05 A3032 RMK A01 T00830045  RH  077%=      5-min Rain = 0
KSB1 072006Z 11015KT 08/04 A3032 RMK A01 T00830044  RH  077%=      5-min Rain = 0
KSB1 072007Z 11017KT 08/05 A3032 RMK A01 T00820045  RH  077%=      5-min Rain = 0
KSB1 072008Z 11015KT 08/04 A3032 RMK A01 T00820044  RH  077%=      5-min Rain = 0
KSB1 072009Z 11013KT 08/05 A3032 RMK A01 T00810045  RH  078%=      5-min Rain = 0
KSB1 072010Z 12014G19KT 08/05 A3032 RMK A01 T00820046  RH  078%=      5-min Rain = 0
KSB1 072011Z 11016KT 08/05 A3032 RMK A01 T00820045  RH  077%=      5-min Rain = 0
KSB1 072012Z 12015KT 08/05 A3033 RMK A01 T00820045  RH  077%=      5-min Rain = 0
KSB1 072013Z 12015KT 08/04 A3033 RMK A01 T00820044  RH  077%=      5-min Rain = 0
KSB1 072014Z 11014KT 08/04 A3033 RMK A01 T00810044  RH  077%=      5-min Rain = 0
KSB1 072015Z 12014KT 08/04 A3033 RMK A01 T00810044  RH  077%=      5-min Rain = 0
KSB1 072016Z 11013KT 08/04 A3033 RMK A01 T00810044  RH  077%=      5-min Rain = 0
KSB1 072017Z 12015KT 08/04 A3033 RMK A01 T00810044  RH  077%=      5-min Rain = 0
KSB1 072018Z 12015KT 08/04 A3033 RMK A01 T00810044  RH  077%=      5-min Rain = 0
KSB1 072019Z 11014KT 08/04 A3033 RMK A01 T00820044  RH  077%=      5-min Rain = 0
KSB1 072020Z 11014KT 08/04 A3033 RMK A01 T00810044  RH  077%=      5-min Rain = 0
KSB1 072021Z 11014KT 08/05 A3033 RMK A01 T00820045  RH  077%=      5-min Rain = 0
KSB1 072022Z 11013KT 08/05 A3033 RMK A01 T00820045  RH  077%=      5-min Rain = 0
KSB1 072023Z 11014KT 08/04 A3033 RMK A01 T00820044  RH  077%=      5-min Rain = 0
KSB1 072024Z 11012KT 08/04 A3033 RMK A01 T00820044  RH  077%=      5-min Rain = 0
KSB1 072025Z 11012G18KT 08/05 A3033 RMK A01 T00830045  RH  077%=      5-min Rain = 0
KSB1 072026Z 11015KT 08/05 A3032 RMK A01 T00840045  RH  077%=      5-min Rain = 0
KSB1 072027Z 11013KT 08/05 A3032 RMK A01 T00840045  RH  076%=      5-min Rain = 0
KSB1 072028Z 12014KT 08/05 A3032 RMK A01 T00840046  RH  077%=      5-min Rain = 0
KSB1 072029Z 11013KT 09/05 A3032 RMK A01 T00850045  RH  076%=      5-min Rain = 0
KSB1 072030Z 12014KT 09/05 A3032 RMK A01 T00850045  RH  076%=      5-min Rain = 0
KSB1 072031Z 12014KT 09/04 A3032 RMK A01 T00850044  RH  076%=      5-min Rain = 0
KSB1 072032Z 12015KT 09/04 A3032 RMK A01 T00850044  RH  076%=      5-min Rain = 0
KSB1 072033Z 12015KT 08/04 A3032 RMK A01 T00840043  RH  075%=      5-min Rain = 0
KSB1 072034Z 11013KT 08/04 A3032 RMK A01 T00840044  RH  076%=      5-min Rain = 0
KSB1 072035Z 10013KT 09/04 A3032 RMK A01 T00850044  RH  076%=      5-min Rain = 0
KSB1 072036Z 11013KT 09/05 A3032 RMK A01 T00850045  RH  076%=      5-min Rain = 0
KSB1 072037Z 11015KT 09/04 A3032 RMK A01 T00850044  RH  075%=      5-min Rain = 0
KSB1 072038Z 11012KT 09/04 A3032 RMK A01 T00850043  RH  075%=      5-min Rain = 0
KSB1 072039Z 12015KT 09/04 A3032 RMK A01 T00850044  RH  075%=      5-min Rain = 0
KSB1 072040Z 12016KT 08/04 A3032 RMK A01 T00840041  RH  074%=      5-min Rain = 0
KSB1 072041Z 11016KT 08/04 A3032 RMK A01 T00830040  RH  075%=      5-min Rain = 0
KSB1 072042Z 12015KT 08/04 A3032 RMK A01 T00820041  RH  075%=      5-min Rain = 0
KSB1 072043Z 11012KT 08/04 A3032 RMK A01 T00810040  RH  075%=      5-min Rain = 0
KSB1 072044Z 12015KT 08/04 A3033 RMK A01 T00820042  RH  076%=      5-min Rain = 0
KSB1 072045Z 12015KT 08/04 A3033 RMK A01 T00820040  RH  075%=      5-min Rain = 0
KSB1 072046Z 12014KT 08/04 A3033 RMK A01 T00810039  RH  075%=      5-min Rain = 0
KSB1 072047Z 12015KT 08/04 A3033 RMK A01 T00800039  RH  075%=      5-min Rain = 0
KSB1 072048Z 12014KT 08/04 A3033 RMK A01 T00800040  RH  076%=      5-min Rain = 0
KSB1 072049Z 12014KT 08/04 A3033 RMK A01 T00810041  RH  076%=      5-min Rain = 0
KSB1 072050Z 12013KT 08/04 A3033 RMK A01 T00820042  RH  076%=      5-min Rain = 0
KSB1 072051Z 12015G20KT 08/04 A3032 RMK A01 T00830042  RH  075%=      5-min Rain = 0
KSB1 072052Z 12016KT 08/04 A3032 RMK A01 T00830041  RH  075%=      5-min Rain = 0
KSB1 072053Z 12016KT 08/04 A3032 RMK A01 T00820041  RH  075%=      5-min Rain = 0
KSB1 072054Z 12013KT 08/04 A3032 RMK A01 T00820041  RH  075%=      5-min Rain = 0
KSB1 072055Z 12014KT 08/04 A3032 RMK A01 T00820041  RH  075%=      5-min Rain = 0
KSB1 072056Z 12014KT 08/04 A3032 RMK A01 T00820041  RH  075%=      5-min Rain = 0
KSB1 072057Z 12014KT 08/04 A3032 RMK A01 T00830041  RH  075%=      5-min Rain = 0
KSB1 072058Z 12015KT 08/04 A3032 RMK A01 T00830041  RH  075%=      5-min Rain = 0
KSB1 072059Z 11013KT 08/04 A3032 RMK A01 T00830040  RH  075%=      5-min Rain = 0
KSB1 072100Z 12013KT 08/04 A3032 RMK A01 T00830041  RH  075%=      5-min Rain = 0
KSB1 072101Z 12015KT 08/04 A3032 RMK A01 T00840040  RH  074%=      5-min Rain = 0
KSB1 072102Z 12017KT 08/04 A3031 RMK A01 T00840040  RH  074%=      5-min Rain = 0
KSB1 072103Z 12016KT 09/04 A3031 RMK A01 T00850040  RH  074%=      5-min Rain = 0
KSB1 072104Z 11016KT 09/04 A3031 RMK A01 T00860042  RH  074%=      5-min Rain = 0
KSB1 072105Z 11015KT 09/04 A3031 RMK A01 T00860041  RH  073%=      5-min Rain = 0
KSB1 072106Z 11013KT 09/04 A3031 RMK A01 T00860041  RH  074%=      5-min Rain = 0
KSB1 072107Z 11012KT 09/04 A3032 RMK A01 T00870043  RH  074%=      5-min Rain = 0
KSB1 072108Z 11014KT 09/04 A3032 RMK A01 T00880042  RH  073%=      5-min Rain = 0
KSB1 072109Z 12013KT 09/04 A3032 RMK A01 T00860039  RH  072%=      5-min Rain = 0
KSB1 072110Z 13013KT 09/04 A3032 RMK A01 T00850040  RH  074%=      5-min Rain = 0
KSB1 072111Z 13014KT 08/04 A3032 RMK A01 T00840040  RH  074%=      5-min Rain = 0
KSB1 072112Z 12013KT 08/04 A3032 RMK A01 T00830040  RH  074%=      5-min Rain = 0
KSB1 072113Z 12013KT 08/04 A3032 RMK A01 T00830040  RH  075%=      5-min Rain = 0
KSB1 072114Z 12011KT 08/04 A3032 RMK A01 T00830040  RH  075%=      5-min Rain = 0
KSB1 072115Z 12013KT 08/04 A3032 RMK A01 T00830041  RH  075%=      5-min Rain = 0
KSB1 072116Z 12014KT 08/04 A3032 RMK A01 T00830040  RH  074%=      5-min Rain = 0
KSB1 072117Z 12013KT 08/04 A3032 RMK A01 T00820038  RH  074%=      5-min Rain = 0
KSB1 072118Z 12012KT 08/04 A3032 RMK A01 T00810039  RH  075%=      5-min Rain = 0
KSB1 072119Z 13014KT 08/04 A3032 RMK A01 T00810039  RH  075%=      5-min Rain = 0
KSB1 072120Z 12014KT 08/04 A3033 RMK A01 T00810039  RH  075%=      5-min Rain = 0
KSB1 072121Z 11014KT 08/04 A3033 RMK A01 T00810039  RH  075%=      5-min Rain = 0
KSB1 072122Z 11014KT 08/04 A3033 RMK A01 T00800038  RH  075%=      5-min Rain = 0
KSB1 072123Z 11014KT 08/04 A3033 RMK A01 T00790038  RH  075%=      5-min Rain = 0
KSB1 072124Z 12013KT 08/04 A3033 RMK A01 T00790038  RH  075%=      5-min Rain = 0
KSB1 072125Z 12016KT 08/04 A3033 RMK A01 T00790038  RH  075%=      5-min Rain = 0
KSB1 072126Z 12014KT 08/04 A3033 RMK A01 T00790038  RH  075%=      5-min Rain = 0
KSB1 072127Z 12012KT 08/04 A3033 RMK A01 T00790039  RH  076%=      5-min Rain = 0
KSB1 072128Z 12014KT 08/04 A3033 RMK A01 T00800040  RH  076%=      5-min Rain = 0
KSB1 072129Z 11014KT 08/04 A3033 RMK A01 T00800039  RH  075%=      5-min Rain = 0
KSB1 072130Z 11011KT 08/04 A3033 RMK A01 T00800039  RH  076%=      5-min Rain = 0
KSB1 072131Z 12011KT 08/04 A3033 RMK A01 T00800040  RH  076%=      5-min Rain = 0
KSB1 072132Z 12013G18KT 08/04 A3032 RMK A01 T00820041  RH  076%=      5-min Rain = 0
KSB1 072133Z 12015KT 08/04 A3032 RMK A01 T00820039  RH  075%=      5-min Rain = 0
KSB1 072134Z 12016KT 08/04 A3032 RMK A01 T00810039  RH  075%=      5-min Rain = 0
KSB1 072135Z 11015KT 08/04 A3032 RMK A01 T00800038  RH  075%=      5-min Rain = 0
KSB1 072136Z 12014KT 08/04 A3032 RMK A01 T00800039  RH  075%=      5-min Rain = 0
KSB1 072137Z 12013G18KT 08/04 A3032 RMK A01 T00800038  RH  075%=      5-min Rain = 0
KSB1 072138Z 12013KT 08/04 A3032 RMK A01 T00800039  RH  075%=      5-min Rain = 0
KSB1 072139Z 12015KT 08/04 A3032 RMK A01 T00790038  RH  075%=      5-min Rain = 0
KSB1 072140Z 12012KT 08/04 A3032 RMK A01 T00780037  RH  075%=      5-min Rain = 0
KSB1 072141Z 12014KT 08/04 A3032 RMK A01 T00780037  RH  076%=      5-min Rain = 0
KSB1 072142Z 12010G15KT 08/04 A3032 RMK A01 T00780038  RH  076%=      5-min Rain = 0
KSB1 072143Z 12014KT 08/04 A3032 RMK A01 T00790039  RH  076%=      5-min Rain = 0
KSB1 072144Z 11012KT 08/04 A3032 RMK A01 T00790038  RH  076%=      5-min Rain = 0
KSB1 072145Z 12014KT 08/04 A3032 RMK A01 T00790039  RH  076%=      5-min Rain = 0
KSB1 072146Z 13012KT 08/04 A3032 RMK A01 T00790039  RH  075%=      5-min Rain = 0
KSB1 072147Z 12013KT 08/04 A3032 RMK A01 T00800038  RH  075%=      5-min Rain = 0
KSB1 072148Z 12015KT 08/04 A3032 RMK A01 T00800038  RH  075%=      5-min Rain = 0
KSB1 072149Z 12014KT 08/04 A3033 RMK A01 T00790037  RH  075%=      5-min Rain = 0
KSB1 072150Z 12014KT 08/04 A3033 RMK A01 T00780037  RH  075%=      5-min Rain = 0
KSB1 072151Z 13016KT 08/04 A3033 RMK A01 T00780037  RH  075%=      5-min Rain = 0
KSB1 072152Z 12014KT 08/04 A3033 RMK A01 T00770036  RH  075%=      5-min Rain = 0
KSB1 072153Z 12012KT 08/04 A3033 RMK A01 T00760036  RH  075%=      5-min Rain = 0
KSB1 072154Z 12012KT 08/04 A3033 RMK A01 T00760037  RH  076%=      5-min Rain = 0
KSB1 072155Z 11014KT 08/04 A3033 RMK A01 T00770038  RH  076%=      5-min Rain = 0
KSB1 072156Z 11013KT 08/04 A3033 RMK A01 T00770037  RH  076%=      5-min Rain = 0
KSB1 072157Z 11015KT 08/04 A3033 RMK A01 T00770037  RH  076%=      5-min Rain = 0
KSB1 072158Z 11013KT 08/04 A3033 RMK A01 T00760037  RH  076%=      5-min Rain = 0
KSB1 072159Z 11015KT 08/04 A3033 RMK A01 T00760036  RH  076%=      5-min Rain = 0
KSB1 072200Z 11014KT 08/04 A3033 RMK A01 T00750037  RH  077%=      5-min Rain = 0
KSB1 072201Z 12013KT 08/04 A3033 RMK A01 T00750036  RH  076%=      5-min Rain = 0
KSB1 072202Z 11013KT 07/04 A3033 RMK A01 T00740036  RH  077%=      5-min Rain = 0
KSB1 072203Z 12013KT 08/04 A3033 RMK A01 T00750037  RH  077%=      5-min Rain = 0
KSB1 072204Z 11013KT 08/04 A3033 RMK A01 T00750037  RH  077%=      5-min Rain = 0
KSB1 072205Z 12013KT 07/04 A3033 RMK A01 T00740037  RH  077%=      5-min Rain = 0
KSB1 072206Z 11015KT 08/04 A3033 RMK A01 T00750037  RH  077%=      5-min Rain = 0
KSB1 072207Z 12014KT 07/04 A3033 RMK A01 T00740036  RH  077%=      5-min Rain = 0
KSB1 072208Z 12014KT 07/04 A3033 RMK A01 T00740036  RH  077%=      5-min Rain = 0
KSB1 072209Z 12014KT 07/04 A3033 RMK A01 T00740037  RH  077%=      5-min Rain = 0
KSB1 072210Z 12013KT 07/04 A3033 RMK A01 T00740037  RH  077%=      5-min Rain = 0
KSB1 072211Z 12014KT 07/04 A3033 RMK A01 T00740036  RH  077%=      5-min Rain = 0
KSB1 072212Z 12014KT 07/04 A3033 RMK A01 T00740037  RH  077%=      5-min Rain = 0
KSB1 072213Z 12012KT 07/04 A3033 RMK A01 T00740037  RH  077%=      5-min Rain = 0
KSB1 072214Z 11016KT 08/04 A3033 RMK A01 T00750037  RH  077%=      5-min Rain = 0
KSB1 072215Z 11014KT 08/04 A3033 RMK A01 T00750036  RH  076%=      5-min Rain = 0
KSB1 072216Z 12011KT 08/04 A3033 RMK A01 T00750037  RH  077%=      5-min Rain = 0
KSB1 072217Z 12012KT 08/04 A3033 RMK A01 T00750038  RH  077%=      5-min Rain = 0
KSB1 072218Z 11012KT 08/04 A3033 RMK A01 T00760038  RH  077%=      5-min Rain = 0
KSB1 072219Z 11013KT 08/04 A3033 RMK A01 T00750037  RH  077%=      5-min Rain = 0
KSB1 072220Z 12015KT 08/04 A3033 RMK A01 T00750036  RH  076%=      5-min Rain = 0
KSB1 072221Z 12014KT 07/04 A3033 RMK A01 T00730035  RH  077%=      5-min Rain = 0
KSB1 072222Z 12012KT 07/04 A3033 RMK A01 T00730036  RH  077%=      5-min Rain = 0
KSB1 072223Z 12014KT 07/04 A3033 RMK A01 T00730036  RH  077%=      5-min Rain = 0
KSB1 072224Z 12013KT 07/04 A3033 RMK A01 T00730036  RH  077%=      5-min Rain = 0
KSB1 072225Z 11011KT 07/04 A3033 RMK A01 T00720036  RH  078%=      5-min Rain = 0
KSB1 072226Z 11013KT 07/04 A3033 RMK A01 T00730037  RH  078%=      5-min Rain = 0
KSB1 072227Z 11015KT 07/04 A3033 RMK A01 T00720036  RH  078%=      5-min Rain = 0
KSB1 072228Z 11016KT 07/04 A3033 RMK A01 T00720035  RH  078%=      5-min Rain = 0
KSB1 072229Z 11015KT 07/04 A3033 RMK A01 T00710035  RH  078%=      5-min Rain = 0
KSB1 072230Z 12013KT 07/04 A3033 RMK A01 T00700035  RH  078%=      5-min Rain = 0
KSB1 072231Z 12011KT 07/04 A3033 RMK A01 T00710036  RH  078%=      5-min Rain = 0
KSB1 072232Z 13013KT 07/04 A3033 RMK A01 T00710036  RH  078%=      5-min Rain = 0
KSB1 072233Z 12011G16KT 07/04 A3033 RMK A01 T00710036  RH  078%=      5-min Rain = 0
KSB1 072234Z 12015KT 07/04 A3033 RMK A01 T00710036  RH  078%=      5-min Rain = 0
KSB1 072235Z 12014KT 07/04 A3033 RMK A01 T00710035  RH  078%=      5-min Rain = 0
KSB1 072236Z 12015KT 07/04 A3033 RMK A01 T00710035  RH  078%=      5-min Rain = 0
KSB1 072237Z 12014KT 07/04 A3033 RMK A01 T00700035  RH  078%=      5-min Rain = 0
KSB1 072238Z 12017KT 07/04 A3033 RMK A01 T00700036  RH  079%=      5-min Rain = 0
KSB1 072239Z 13015KT 07/04 A3033 RMK A01 T00700035  RH  078%=      5-min Rain = 0
KSB1 072240Z 13016KT 07/04 A3033 RMK A01 T00700035  RH  078%=      5-min Rain = 0
KSB1 072241Z 13013KT 07/04 A3034 RMK A01 T00700035  RH  078%=      5-min Rain = 0
KSB1 072242Z 12015KT 07/04 A3034 RMK A01 T00700035  RH  078%=      5-min Rain = 0
KSB1 072243Z 13016KT 07/04 A3034 RMK A01 T00700035  RH  078%=      5-min Rain = 0
KSB1 072244Z 12014KT 07/03 A3034 RMK A01 T00700034  RH  078%=      5-min Rain = 0
KSB1 072245Z 11014KT 07/03 A3034 RMK A01 T00690034  RH  078%=      5-min Rain = 0
KSB1 072246Z 12015KT 07/04 A3034 RMK A01 T00700035  RH  078%=      5-min Rain = 0
KSB1 072247Z 13014KT 07/03 A3034 RMK A01 T00690034  RH  078%=      5-min Rain = 0
KSB1 072248Z 13015G20KT 07/03 A3034 RMK A01 T00690034  RH  078%=      5-min Rain = 0
KSB1 072249Z 12016KT 07/03 A3034 RMK A01 T00680033  RH  078%=      5-min Rain = 0
KSB1 072250Z 13015KT 07/03 A3034 RMK A01 T00670033  RH  079%=      5-min Rain = 0
KSB1 072251Z 12015G20KT 07/03 A3034 RMK A01 T00670033  RH  079%=      5-min Rain = 0
KSB1 072252Z 12015KT 07/03 A3034 RMK A01 T00670033  RH  079%=      5-min Rain = 0
KSB1 072253Z 12015KT 07/03 A3034 RMK A01 T00670033  RH  079%=      5-min Rain = 0
KSB1 072254Z 12014KT 07/03 A3034 RMK A01 T00670033  RH  079%=      5-min Rain = 0
KSB1 072255Z 12015KT 07/03 A3034 RMK A01 T00680034  RH  079%=      5-min Rain = 0
KSB1 072256Z 12013G18KT 07/03 A3034 RMK A01 T00680034  RH  079%=      5-min Rain = 0
KSB1 072257Z 11012KT 07/03 A3034 RMK A01 T00680034  RH  079%=      5-min Rain = 0
KSB1 072258Z 12014KT 07/03 A3034 RMK A01 T00680034  RH  079%=      5-min Rain = 0
KSB1 072259Z 11016KT 07/03 A3033 RMK A01 T00680034  RH  079%=      5-min Rain = 0
KSB1 072300Z 11016KT 07/03 A3033 RMK A01 T00680033  RH  079%=      5-min Rain = 0
KSB1 072301Z 11016KT 07/03 A3034 RMK A01 T00670033  RH  079%=      5-min Rain = 0
KSB1 072302Z 12013KT 07/03 A3034 RMK A01 T00670033  RH  079%=      5-min Rain = 0
KSB1 072303Z 12014KT 07/03 A3034 RMK A01 T00670033  RH  079%=      5-min Rain = 0
KSB1 072304Z 13016KT 07/03 A3034 RMK A01 T00660032  RH  079%=      5-min Rain = 0
KSB1 072305Z 12015KT 07/03 A3034 RMK A01 T00650032  RH  079%=      5-min Rain = 0
KSB1 072306Z 12015KT 07/03 A3034 RMK A01 T00650032  RH  079%=      5-min Rain = 0
KSB1 072307Z 12012KT 06/03 A3034 RMK A01 T00640032  RH  080%=      5-min Rain = 0
KSB1 072308Z 11012KT 07/03 A3034 RMK A01 T00650033  RH  080%=      5-min Rain = 0
KSB1 072309Z 12015KT 07/03 A3034 RMK A01 T00650033  RH  080%=      5-min Rain = 0
KSB1 072310Z 12015KT 07/03 A3034 RMK A01 T00650033  RH  080%=      5-min Rain = 0
KSB1 072311Z 11012KT 07/03 A3035 RMK A01 T00650032  RH  080%=      5-min Rain = 0
KSB1 072312Z 11014KT 06/03 A3035 RMK A01 T00640032  RH  080%=      5-min Rain = 0
KSB1 072313Z 12016KT 06/03 A3035 RMK A01 T00640031  RH  080%=      5-min Rain = 0
KSB1 072314Z 11013KT 06/03 A3035 RMK A01 T00630031  RH  080%=      5-min Rain = 0
KSB1 072315Z 11015KT 06/03 A3035 RMK A01 T00630031  RH  080%=      5-min Rain = 0
KSB1 072316Z 11016KT 06/03 A3035 RMK A01 T00620031  RH  080%=      5-min Rain = 0
KSB1 072317Z 12012KT 06/03 A3035 RMK A01 T00620031  RH  081%=      5-min Rain = 0
KSB1 072318Z 12016KT 06/03 A3035 RMK A01 T00620032  RH  081%=      5-min Rain = 0
KSB1 072319Z 12016KT 06/03 A3035 RMK A01 T00620031  RH  081%=      5-min Rain = 0
KSB1 072320Z 12016KT 06/03 A3035 RMK A01 T00610031  RH  081%=      5-min Rain = 0
KSB1 072321Z 12016KT 06/03 A3035 RMK A01 T00610031  RH  081%=      5-min Rain = 0
KSB1 072322Z 12015KT 06/03 A3035 RMK A01 T00610031  RH  081%=      5-min Rain = 0
KSB1 072323Z 12019KT 06/03 A3035 RMK A01 T00610031  RH  081%=      5-min Rain = 0
KSB1 072324Z 12018KT 06/03 A3034 RMK A01 T00600030  RH  081%=      5-min Rain = 0
KSB1 072325Z 12017KT 06/03 A3034 RMK A01 T00600030  RH  081%=      5-min Rain = 0
KSB1 072326Z 13014KT 06/03 A3034 RMK A01 T00590031  RH  082%=      5-min Rain = 0
KSB1 072327Z 12016G21KT 06/03 A3034 RMK A01 T00590031  RH  082%=      5-min Rain = 0
KSB1 072328Z 12017G22KT 06/03 A3034 RMK A01 T00600031  RH  082%=      5-min Rain = 0
KSB1 072329Z 13016KT 06/03 A3034 RMK A01 T00590030  RH  082%=      5-min Rain = 0
KSB1 072330Z 12014KT 06/03 A3035 RMK A01 T00590030  RH  082%=      5-min Rain = 0
KSB1 072331Z 13018KT 06/03 A3035 RMK A01 T00580030  RH  082%=      5-min Rain = 0
KSB1 072332Z 12016KT 06/03 A3035 RMK A01 T00580029  RH  082%=      5-min Rain = 0
KSB1 072333Z 12016KT 06/03 A3035 RMK A01 T00570029  RH  082%=      5-min Rain = 0
KSB1 072334Z 13015KT 06/03 A3035 RMK A01 T00570029  RH  082%=      5-min Rain = 0
KSB1 072335Z 12010KT 06/03 A3035 RMK A01 T00570029  RH  083%=      5-min Rain = 0
KSB1 072336Z 12016KT 06/03 A3035 RMK A01 T00570030  RH  083%=      5-min Rain = 0
KSB1 072337Z 12012KT 06/03 A3035 RMK A01 T00570030  RH  082%=      5-min Rain = 0
KSB1 072338Z 11011KT 06/03 A3035 RMK A01 T00570030  RH  083%=      5-min Rain = 0
KSB1 072339Z 12015G20KT 06/03 A3035 RMK A01 T00570030  RH  083%=      5-min Rain = 0
KSB1 072340Z 12013KT 06/03 A3035 RMK A01 T00570029  RH  082%=      5-min Rain = 0
KSB1 072341Z 11012KT 06/03 A3035 RMK A01 T00580030  RH  083%=      5-min Rain = 0
KSB1 072342Z 12011KT 06/03 A3036 RMK A01 T00580030  RH  082%=      5-min Rain = 0
KSB1 072343Z 12015KT 06/03 A3036 RMK A01 T00580030  RH  082%=      5-min Rain = 0
KSB1 072344Z 12016KT 06/03 A3036 RMK A01 T00570029  RH  082%=      5-min Rain = 0
KSB1 072345Z 12014KT 06/03 A3036 RMK A01 T00560028  RH  082%=      5-min Rain = 0
KSB1 072346Z 12014KT 06/03 A3036 RMK A01 T00560029  RH  083%=      5-min Rain = 0
KSB1 072347Z 12014KT 06/03 A3036 RMK A01 T00560029  RH  083%=      5-min Rain = 0
KSB1 072348Z 12013KT 06/03 A3036 RMK A01 T00560029  RH  083%=      5-min Rain = 0
KSB1 072349Z 11016KT 06/03 A3035 RMK A01 T00560029  RH  083%=      5-min Rain = 0
KSB1 072350Z 12018KT 06/03 A3035 RMK A01 T00550028  RH  083%=      5-min Rain = 0
KSB1 072351Z 12016KT 06/03 A3035 RMK A01 T00550028  RH  083%=      5-min Rain = 0
KSB1 072352Z 12014KT 06/03 A3035 RMK A01 T00550029  RH  083%=      5-min Rain = 0
KSB1 072353Z 12016KT 06/03 A3035 RMK A01 T00550029  RH  084%=      5-min Rain = 0
KSB1 072354Z 12016KT 06/03 A3035 RMK A01 T00550029  RH  083%=      5-min Rain = 0
KSB1 072355Z 12016KT 05/03 A3035 RMK A01 T00540028  RH  083%=      5-min Rain = 0
KSB1 072356Z 12015KT 05/03 A3035 RMK A01 T00540028  RH  084%=      5-min Rain = 0
KSB1 072357Z 12015KT 05/03 A3035 RMK A01 T00540029  RH  084%=      5-min Rain = 0
KSB1 072358Z 12016KT 05/03 A3035 RMK A01 T00530028  RH  084%=      5-min Rain = 0
KSB1 072359Z 12016KT 05/03 A3035 RMK A01 T00530028  RH  084%=      5-min Rain = 0
KSB1 080000Z 12016KT 05/03 A3035 RMK A01 T00540028  RH  084%=      5-min Rain = 0
KSB1 080001Z 12015KT 05/03 A3035 RMK A01 T00540028  RH  084%=      5-min Rain = 0
KSB1 080002Z 12012KT 05/03 A3035 RMK A01 T00540029  RH  084%=      5-min Rain = 0
KSB1 080003Z 13014KT 05/03 A3035 RMK A01 T00540029  RH  084%=      5-min Rain = 0
KSB1 080004Z 13016KT 05/03 A3035 RMK A01 T00540029  RH  084%=      5-min Rain = 0
KSB1 080005Z 12018KT 05/03 A3035 RMK A01 T00540028  RH  083%=      5-min Rain = 0
KSB1 080006Z 13015KT 05/03 A3035 RMK A01 T00540028  RH  083%=      5-min Rain = 0
KSB1 080007Z 12012KT 05/03 A3035 RMK A01 T00540028  RH  083%=      5-min Rain = 0
KSB1 080008Z 12013G18KT 05/03 A3035 RMK A01 T00540028  RH  084%=      5-min Rain = 0
KSB1 080009Z 12013KT 05/03 A3035 RMK A01 T00540028  RH  084%=      5-min Rain = 0
KSB1 080010Z 12010KT 05/03 A3035 RMK A01 T00530028  RH  084%=      5-min Rain = 0
KSB1 080011Z 11011KT 05/03 A3036 RMK A01 T00530029  RH  084%=      5-min Rain = 0
KSB1 080012Z 11010G15KT 05/03 A3036 RMK A01 T00530029  RH  084%=      5-min Rain = 0
KSB1 080013Z 11012KT 05/03 A3036 RMK A01 T00530029  RH  084%=      5-min Rain = 0
KSB1 080014Z 12012KT 05/03 A3036 RMK A01 T00530028  RH  084%=      5-min Rain = 0
KSB1 080015Z 12013KT 05/03 A3036 RMK A01 T00520027  RH  084%=      5-min Rain = 0
KSB1 080016Z 12012KT 05/03 A3036 RMK A01 T00520027  RH  084%=      5-min Rain = 0
KSB1 080017Z 13014KT 05/03 A3036 RMK A01 T00520027  RH  084%=      5-min Rain = 0
KSB1 080018Z 12014KT 05/03 A3036 RMK A01 T00520027  RH  084%=      5-min Rain = 0
KSB1 080019Z 12015KT 05/03 A3036 RMK A01 T00510026  RH  084%=      5-min Rain = 0
KSB1 080020Z 12014KT 05/03 A3036 RMK A01 T00510026  RH  084%=      5-min Rain = 0
KSB1 080021Z 12014KT 05/03 A3036 RMK A01 T00500026  RH  084%=      5-min Rain = 0
KSB1 080022Z 12014KT 05/03 A3035 RMK A01 T00500026  RH  085%=      5-min Rain = 0
KSB1 080023Z 11011KT 05/03 A3036 RMK A01 T00500027  RH  085%=      5-min Rain = 0
KSB1 080024Z 12013KT 05/03 A3036 RMK A01 T00510027  RH  085%=      5-min Rain = 0
KSB1 080025Z 11016KT 05/03 A3036 RMK A01 T00510027  RH  085%=      5-min Rain = 0
KSB1 080026Z 11015KT 05/03 A3036 RMK A01 T00500026  RH  084%=      5-min Rain = 0
KSB1 080027Z 12013KT 05/03 A3036 RMK A01 T00500027  RH  085%=      5-min Rain = 0
KSB1 080028Z 12016KT 05/03 A3036 RMK A01 T00500027  RH  085%=      5-min Rain = 0
KSB1 080029Z 12016KT 05/03 A3036 RMK A01 T00500026  RH  085%=      5-min Rain = 0
KSB1 080030Z 12013KT 05/03 A3036 RMK A01 T00500026  RH  085%=      5-min Rain = 0
KSB1 080031Z 12014KT 05/03 A3036 RMK A01 T00490026  RH  085%=      5-min Rain = 0
KSB1 080032Z 12010KT 05/03 A3036 RMK A01 T00500027  RH  085%=      5-min Rain = 0
KSB1 080033Z 12013KT 05/03 A3036 RMK A01 T00500027  RH  085%=      5-min Rain = 0
KSB1 080034Z 12013KT 05/03 A3036 RMK A01 T00500027  RH  085%=      5-min Rain = 0
KSB1 080035Z 13013KT 05/03 A3036 RMK A01 T00500027  RH  085%=      5-min Rain = 0
KSB1 080036Z 12014KT 05/03 A3037 RMK A01 T00500027  RH  085%=      5-min Rain = 0
KSB1 080037Z 13014KT 05/03 A3037 RMK A01 T00490026  RH  085%=      5-min Rain = 0
KSB1 080038Z 12012KT 05/03 A3037 RMK A01 T00490026  RH  085%=      5-min Rain = 0
KSB1 080039Z 12014KT 05/03 A3037 RMK A01 T00490026  RH  085%=      5-min Rain = 0
KSB1 080040Z 12012KT 05/03 A3037 RMK A01 T00480026  RH  085%=      5-min Rain = 0
KSB1 080041Z 12012KT 05/03 A3037 RMK A01 T00490026  RH  085%=      5-min Rain = 0
KSB1 080042Z 12012KT 05/03 A3037 RMK A01 T00480026  RH  085%=      5-min Rain = 0
KSB1 080043Z 12010G15KT 05/03 A3037 RMK A01 T00480026  RH  085%=      5-min Rain = 0
KSB1 080044Z 12012KT 05/03 A3037 RMK A01 T00480026  RH  086%=      5-min Rain = 0
KSB1 080045Z 12014KT 05/03 A3037 RMK A01 T00480026  RH  085%=      5-min Rain = 0
KSB1 080046Z 12014KT 05/03 A3037 RMK A01 T00490026  RH  085%=      5-min Rain = 0
KSB1 080047Z 12013KT 05/03 A3037 RMK A01 T00480025  RH  085%=      5-min Rain = 0
KSB1 080048Z 12013KT 05/03 A3037 RMK A01 T00480026  RH  086%=      5-min Rain = 0
KSB1 080049Z 12013KT 05/03 A3037 RMK A01 T00480026  RH  086%=      5-min Rain = 0
KSB1 080050Z 12012KT 05/03 A3037 RMK A01 T00480026  RH  086%=      5-min Rain = 0
KSB1 080051Z 13012KT 05/03 A3038 RMK A01 T00480026  RH  086%=      5-min Rain = 0
KSB1 080052Z 12012KT 05/03 A3038 RMK A01 T00470026  RH  086%=      5-min Rain = 0
KSB1 080053Z 12011KT 05/03 A3037 RMK A01 T00470026  RH  086%=      5-min Rain = 0
KSB1 080054Z 12013KT 05/03 A3037 RMK A01 T00470026  RH  086%=      5-min Rain = 0
KSB1 080055Z 12012KT 05/03 A3037 RMK A01 T00470026  RH  086%=      5-min Rain = 0
KSB1 080056Z 12012KT 05/03 A3037 RMK A01 T00470026  RH  087%=      5-min Rain = 0
KSB1 080057Z 12012KT 05/03 A3037 RMK A01 T00470026  RH  087%=      5-min Rain = 0
KSB1 080058Z 12013KT 05/03 A3037 RMK A01 T00470027  RH  087%=      5-min Rain = 0
KSB1 080059Z 12011KT 05/03 A3037 RMK A01 T00470026  RH  087%=      5-min Rain = 0
KSB1 080100Z 12013KT 05/03 A3037 RMK A01 T00470026  RH  087%=      5-min Rain = 0
KSB1 080101Z 11012KT 05/03 A3037 RMK A01 T00460026  RH  087%=      5-min Rain = 0
KSB1 080102Z 12012G18KT 05/03 A3037 RMK A01 T00460026  RH  087%=      5-min Rain = 0
KSB1 080103Z 12014KT 05/03 A3037 RMK A01 T00460026  RH  087%=      5-min Rain = 0
KSB1 080104Z 11014KT 05/03 A3037 RMK A01 T00460026  RH  087%=      5-min Rain = 0
KSB1 080105Z 12015KT 05/03 A3037 RMK A01 T00460026  RH  087%=      5-min Rain = 0
KSB1 080106Z 12014KT 05/03 A3037 RMK A01 T00450026  RH  087%=      5-min Rain = 0
KSB1 080107Z 12013KT 05/03 A3038 RMK A01 T00450025  RH  087%=      5-min Rain = 0
KSB1 080108Z 12012KT 05/03 A3038 RMK A01 T00450025  RH  087%=      5-min Rain = 0
KSB1 080109Z 12012KT 05/03 A3038 RMK A01 T00450026  RH  087%=      5-min Rain = 0
KSB1 080110Z 12012KT 05/03 A3038 RMK A01 T00450026  RH  087%=      5-min Rain = 0
KSB1 080111Z 13011KT 05/03 A3038 RMK A01 T00450026  RH  088%=      5-min Rain = 0
KSB1 080112Z 12013KT 05/03 A3038 RMK A01 T00450026  RH  087%=      5-min Rain = 0
KSB1 080113Z 12015KT 05/03 A3038 RMK A01 T00460026  RH  087%=      5-min Rain = 0
KSB1 080114Z 13012KT 05/03 A3038 RMK A01 T00450025  RH  087%=      5-min Rain = 0
KSB1 080115Z 13013KT 05/03 A3038 RMK A01 T00450026  RH  087%=      5-min Rain = 0
KSB1 080116Z 12011KT 05/03 A3038 RMK A01 T00450026  RH  087%=      5-min Rain = 0
KSB1 080117Z 12014KT 05/03 A3038 RMK A01 T00450026  RH  087%=      5-min Rain = 0
KSB1 080118Z 12013KT 05/03 A3038 RMK A01 T00450026  RH  087%=      5-min Rain = 0
KSB1 080119Z 12014KT 05/03 A3038 RMK A01 T00450026  RH  087%=      5-min Rain = 0
KSB1 080120Z 12013KT 04/03 A3038 RMK A01 T00440025  RH  087%=      5-min Rain = 0
KSB1 080121Z 12013KT 04/03 A3038 RMK A01 T00440025  RH  088%=      5-min Rain = 0
KSB1 080122Z 11012KT 04/03 A3039 RMK A01 T00440025  RH  088%=      5-min Rain = 0
KSB1 080123Z 12009G14KT 04/03 A3039 RMK A01 T00440025  RH  088%=      5-min Rain = 0
KSB1 080124Z 13010KT 04/03 A3039 RMK A01 T00430026  RH  088%=      5-min Rain = 0
KSB1 080125Z 12012KT 04/03 A3039 RMK A01 T00440026  RH  088%=      5-min Rain = 0
KSB1 080126Z 13011KT 04/03 A3039 RMK A01 T00430025  RH  088%=      5-min Rain = 0
KSB1 080127Z 13011KT 04/03 A3039 RMK A01 T00430026  RH  088%=      5-min Rain = 0
KSB1 080128Z 12012KT 04/03 A3039 RMK A01 T00430026  RH  088%=      5-min Rain = 0
KSB1 080129Z 12011KT 04/03 A3039 RMK A01 T00430025  RH  088%=      5-min Rain = 0
KSB1 080130Z 11013KT 04/03 A3039 RMK A01 T00430025  RH  088%=      5-min Rain = 0
KSB1 080131Z 11013KT 04/03 A3039 RMK A01 T00420025  RH  088%=      5-min Rain = 0
KSB1 080132Z 12010KT 04/02 A3039 RMK A01 T00420024  RH  088%=      5-min Rain = 0
KSB1 080133Z 12012KT 04/03 A3039 RMK A01 T00420025  RH  089%=      5-min Rain = 0
KSB1 080134Z 12012KT 04/03 A3038 RMK A01 T00420025  RH  089%=      5-min Rain = 0
KSB1 080135Z 12012KT 04/03 A3038 RMK A01 T00420025  RH  089%=      5-min Rain = 0
KSB1 080136Z 12013KT 04/03 A3038 RMK A01 T00420025  RH  089%=      5-min Rain = 0
KSB1 080137Z 12013KT 04/03 A3038 RMK A01 T00410025  RH  089%=      5-min Rain = 0
KSB1 080138Z 12009KT 04/03 A3039 RMK A01 T00410025  RH  089%=      5-min Rain = 0
KSB1 080139Z 12012KT 04/03 A3039 RMK A01 T00410026  RH  089%=      5-min Rain = 0
KSB1 080140Z 12011KT 04/03 A3039 RMK A01 T00410025  RH  089%=      5-min Rain = 0
KSB1 080141Z 11011KT 04/03 A3039 RMK A01 T00410025  RH  090%=      5-min Rain = 0
KSB1 080142Z 11013KT 04/03 A3039 RMK A01 T00410025  RH  089%=      5-min Rain = 0
KSB1 080143Z 12010KT 04/03 A3039 RMK A01 T00410025  RH  089%=      5-min Rain = 0
KSB1 080144Z 12012KT 04/03 A3039 RMK A01 T00410025  RH  089%=      5-min Rain = 0
KSB1 080145Z 12010KT 04/03 A3039 RMK A01 T00410025  RH  090%=      5-min Rain = 0
KSB1 080146Z 11011KT 04/03 A3039 RMK A01 T00410025  RH  090%=      5-min Rain = 0
KSB1 080147Z 12010KT 04/03 A3039 RMK A01 T00410025  RH  090%=      5-min Rain = 0
KSB1 080148Z 12010KT 04/03 A3039 RMK A01 T00410025  RH  090%=      5-min Rain = 0
KSB1 080149Z 12009KT 04/03 A3039 RMK A01 T00400025  RH  090%=      5-min Rain = 0
KSB1 080150Z 12010KT 04/03 A3039 RMK A01 T00410026  RH  090%=      5-min Rain = 0
KSB1 080151Z 12009KT 04/03 A3039 RMK A01 T00410026  RH  090%=      5-min Rain = 0
KSB1 080152Z 12009KT 04/03 A3039 RMK A01 T00410026  RH  090%=      5-min Rain = 0
KSB1 080153Z 12010KT 04/03 A3039 RMK A01 T00400025  RH  090%=      5-min Rain = 0
KSB1 080154Z 11011KT 04/03 A3039 RMK A01 T00400025  RH  090%=      5-min Rain = 0
KSB1 080155Z 11010KT 04/03 A3039 RMK A01 T00400025  RH  090%=      5-min Rain = 0
KSB1 080156Z 11011KT 04/03 A3039 RMK A01 T00400025  RH  090%=      5-min Rain = 0
KSB1 080157Z 11012KT 04/03 A3039 RMK A01 T00400025  RH  090%=      5-min Rain = 0
KSB1 080158Z 11011KT 04/03 A3039 RMK A01 T00400025  RH  090%=      5-min Rain = 0
KSB1 080159Z 12010KT 04/03 A3039 RMK A01 T00400025  RH  090%=      5-min Rain = 0
KSB1 080200Z 12010KT 04/03 A3039 RMK A01 T00400025  RH  090%=      5-min Rain = 0
KSB1 080201Z 12011KT 04/03 A3039 RMK A01 T00400025  RH  090%=      5-min Rain = 0
KSB1 080202Z 12010KT 04/03 A3039 RMK A01 T00400025  RH  090%=      5-min Rain = 0
KSB1 080203Z 12011KT 04/03 A3039 RMK A01 T00400025  RH  090%=      5-min Rain = 0
KSB1 080204Z 11012KT 04/03 A3039 RMK A01 T00400025  RH  090%=      5-min Rain = 0
KSB1 080205Z 12011KT 04/02 A3039 RMK A01 T00400024  RH  090%=      5-min Rain = 0
KSB1 080206Z 12011KT 04/02 A3039 RMK A01 T00400024  RH  090%=      5-min Rain = 0
KSB1 080207Z 12012KT 04/02 A3039 RMK A01 T00390024  RH  090%=      5-min Rain = 0
KSB1 080208Z 12011KT 04/02 A3039 RMK A01 T00390024  RH  090%=      5-min Rain = 0
KSB1 080209Z 12009KT 04/02 A3039 RMK A01 T00390024  RH  090%=      5-min Rain = 0
KSB1 080210Z 11011KT 04/02 A304 RMK A01 T00390024  RH  090%=      5-min Rain = 0
KSB1 080211Z 12010KT 04/02 A304 RMK A01 T00390024  RH  090%=      5-min Rain = 0
KSB1 080212Z 12009KT 04/03 A304 RMK A01 T00390025  RH  090%=      5-min Rain = 0
KSB1 080213Z 12008KT 04/02 A304 RMK A01 T00390024  RH  090%=      5-min Rain = 0
KSB1 080214Z 12011KT 04/03 A304 RMK A01 T00390025  RH  090%=      5-min Rain = 0
KSB1 080215Z 12009KT 04/03 A304 RMK A01 T00390025  RH  090%=      5-min Rain = 0
KSB1 080216Z 12009KT 04/02 A304 RMK A01 T00390024  RH  090%=      5-min Rain = 0
KSB1 080217Z 12011KT 04/03 A304 RMK A01 T00390025  RH  091%=      5-min Rain = 0
KSB1 080218Z 12012KT 04/03 A304 RMK A01 T00390025  RH  090%=      5-min Rain = 0
KSB1 080219Z 12011KT 04/02 A304 RMK A01 T00390024  RH  090%=      5-min Rain = 0
KSB1 080220Z 11010KT 04/02 A304 RMK A01 T00390024  RH  090%=      5-min Rain = 0
KSB1 080221Z 12009KT 04/03 A304 RMK A01 T00390025  RH  090%=      5-min Rain = 0
KSB1 080222Z 12012KT 04/03 A304 RMK A01 T00390025  RH  090%=      5-min Rain = 0
KSB1 080223Z 12011KT 04/02 A304 RMK A01 T00390024  RH  090%=      5-min Rain = 0
KSB1 080224Z 11011KT 04/02 A304 RMK A01 T00390024  RH  090%=      5-min Rain = 0
KSB1 080225Z 12011KT 04/02 A304 RMK A01 T00380024  RH  090%=      5-min Rain = 0
KSB1 080226Z 12013KT 04/02 A304 RMK A01 T00380024  RH  090%=      5-min Rain = 0
KSB1 080227Z 12013KT 04/02 A304 RMK A01 T00390024  RH  090%=      5-min Rain = 0
KSB1 080228Z 12011KT 04/02 A304 RMK A01 T00380024  RH  090%=      5-min Rain = 0
KSB1 080229Z 12013KT 04/02 A304 RMK A01 T00380024  RH  091%=      5-min Rain = 0
KSB1 080230Z 12013KT 04/02 A304 RMK A01 T00380024  RH  090%=      5-min Rain = 0
KSB1 080231Z 11010KT 04/02 A304 RMK A01 T00370023  RH  090%=      5-min Rain = 0
KSB1 080232Z 12012KT 04/02 A304 RMK A01 T00380024  RH  091%=      5-min Rain = 0
KSB1 080233Z 12012KT 04/02 A304 RMK A01 T00370024  RH  091%=      5-min Rain = 0
KSB1 080234Z 12012KT 04/02 A304 RMK A01 T00370024  RH  091%=      5-min Rain = 0
KSB1 080235Z 12012KT 04/02 A304 RMK A01 T00370023  RH  091%=      5-min Rain = 0
KSB1 080236Z 12010KT 04/02 A304 RMK A01 T00370024  RH  091%=      5-min Rain = 0
KSB1 080237Z 12007KT 04/02 A304 RMK A01 T00370024  RH  091%=      5-min Rain = 0
KSB1 080238Z 13011KT 04/02 A304 RMK A01 T00370024  RH  091%=      5-min Rain = 0
KSB1 080239Z 12010KT 04/02 A304 RMK A01 T00370024  RH  091%=      5-min Rain = 0
KSB1 080240Z 12010KT 04/02 A304 RMK A01 T00370024  RH  091%=      5-min Rain = 0
KSB1 080241Z 13010KT 04/02 A304 RMK A01 T00370024  RH  091%=      5-min Rain = 0
KSB1 080242Z 12010KT 04/02 A304 RMK A01 T00370024  RH  091%=      5-min Rain = 0
KSB1 080243Z 13011KT 04/02 A304 RMK A01 T00370024  RH  091%=      5-min Rain = 0
KSB1 080244Z 12010KT 04/02 A304 RMK A01 T00370024  RH  091%=      5-min Rain = 0
KSB1 080245Z 12011KT 04/02 A304 RMK A01 T00370024  RH  091%=      5-min Rain = 0
KSB1 080246Z 12011KT 04/02 A304 RMK A01 T00370024  RH  091%=      5-min Rain = 0
KSB1 080247Z 12011KT 04/02 A304 RMK A01 T00360024  RH  092%=      5-min Rain = 0
KSB1 080248Z 12011KT 04/02 A304 RMK A01 T00360024  RH  092%=      5-min Rain = 0
KSB1 080249Z 12012KT 04/02 A304 RMK A01 T00360024  RH  092%=      5-min Rain = 0
KSB1 080250Z 12011KT 04/02 A304 RMK A01 T00360024  RH  092%=      5-min Rain = 0
KSB1 080251Z 11013KT 04/02 A304 RMK A01 T00360024  RH  092%=      5-min Rain = 0
KSB1 080252Z 11011KT 04/02 A3041 RMK A01 T00360024  RH  092%=      5-min Rain = 0
KSB1 080253Z 11011KT 04/02 A3041 RMK A01 T00360024  RH  092%=      5-min Rain = 0
KSB1 080254Z 12010KT 04/02 A3041 RMK A01 T00360024  RH  092%=      5-min Rain = 0
KSB1 080255Z 12009KT 04/02 A3041 RMK A01 T00360024  RH  092%=      5-min Rain = 0
KSB1 080256Z 12009KT 04/02 A3041 RMK A01 T00360024  RH  092%=      5-min Rain = 0
KSB1 080257Z 12011KT 04/02 A3041 RMK A01 T00360024  RH  092%=      5-min Rain = 0
KSB1 080258Z 11012KT 04/02 A3041 RMK A01 T00360024  RH  092%=      5-min Rain = 0
KSB1 080259Z 11012KT 04/02 A3041 RMK A01 T00360023  RH  092%=      5-min Rain = 0
KSB1 080300Z 12011KT 04/02 A3041 RMK A01 T00360024  RH  092%=      5-min Rain = 0
KSB1 080301Z 12010KT 04/02 A3041 RMK A01 T00360024  RH  092%=      5-min Rain = 0
KSB1 080302Z 12011KT 04/02 A3041 RMK A01 T00360024  RH  092%=      5-min Rain = 0
KSB1 080303Z 12011KT 04/02 A3041 RMK A01 T00360024  RH  092%=      5-min Rain = 0
KSB1 080304Z 12011KT 04/02 A3041 RMK A01 T00360024  RH  092%=      5-min Rain = 0
KSB1 080305Z 12013KT 04/02 A3041 RMK A01 T00360024  RH  092%=      5-min Rain = 0
KSB1 080306Z 12012KT 04/02 A3041 RMK A01 T00370024  RH  092%=      5-min Rain = 0
KSB1 080307Z 12013KT 04/02 A3041 RMK A01 T00370024  RH  092%=      5-min Rain = 0
KSB1 080308Z 12012KT 04/02 A3041 RMK A01 T00370024  RH  091%=      5-min Rain = 0
KSB1 080309Z 12012KT 04/02 A3041 RMK A01 T00360024  RH  092%=      5-min Rain = 0
KSB1 080310Z 12013KT 04/02 A3041 RMK A01 T00360024  RH  092%=      5-min Rain = 0
KSB1 080311Z 11013KT 04/02 A3041 RMK A01 T00360023  RH  092%=      5-min Rain = 0
KSB1 080312Z 11012KT 04/02 A3041 RMK A01 T00360024  RH  092%=      5-min Rain = 0
KSB1 080313Z 12013KT 04/02 A3041 RMK A01 T00350024  RH  092%=      5-min Rain = 0
KSB1 080314Z 12012KT 04/02 A3042 RMK A01 T00360024  RH  092%=      5-min Rain = 0
KSB1 080315Z 12013KT 04/02 A3042 RMK A01 T00360024  RH  092%=      5-min Rain = 0
KSB1 080316Z 11010KT 04/02 A3042 RMK A01 T00360024  RH  092%=      5-min Rain = 0
KSB1 080317Z 11010KT 04/02 A3042 RMK A01 T00360024  RH  092%=      5-min Rain = 0
KSB1 080318Z 12012KT 04/02 A3042 RMK A01 T00360024  RH  092%=      5-min Rain = 0
KSB1 080319Z 11011KT 04/02 A3042 RMK A01 T00360024  RH  092%=      5-min Rain = 0
KSB1 080320Z 12011KT 04/02 A3042 RMK A01 T00360024  RH  092%=      5-min Rain = 0
KSB1 080321Z 12011KT 04/02 A3042 RMK A01 T00360024  RH  092%=      5-min Rain = 0
KSB1 080322Z 11009KT 04/02 A3042 RMK A01 T00360024  RH  092%=      5-min Rain = 0
KSB1 080323Z 11012KT 04/03 A3042 RMK A01 T00360025  RH  092%=      5-min Rain = 0
KSB1 080324Z 11013KT 04/02 A3042 RMK A01 T00360024  RH  092%=      5-min Rain = 0
KSB1 080325Z 11012KT 04/02 A3042 RMK A01 T00360024  RH  092%=      5-min Rain = 0
KSB1 080326Z 11012KT 04/02 A3041 RMK A01 T00350023  RH  092%=      5-min Rain = 0
KSB1 080327Z 11012KT 04/02 A3041 RMK A01 T00350023  RH  092%=      5-min Rain = 0
KSB1 080328Z 11012KT 04/02 A3041 RMK A01 T00350024  RH  092%=      5-min Rain = 0
KSB1 080329Z 11011KT 04/02 A3041 RMK A01 T00350024  RH  092%=      5-min Rain = 0
KSB1 080330Z 12011KT 04/02 A3042 RMK A01 T00350024  RH  092%=      5-min Rain = 0
KSB1 080331Z 12010KT 04/02 A3042 RMK A01 T00350024  RH  092%=      5-min Rain = 0
KSB1 080332Z 12008KT 04/02 A3042 RMK A01 T00350024  RH  092%=      5-min Rain = 0
KSB1 080333Z 12009KT 04/02 A3042 RMK A01 T00350024  RH  092%=      5-min Rain = 0
KSB1 080334Z 12010KT 04/03 A3042 RMK A01 T00360025  RH  092%=      5-min Rain = 0
KSB1 080335Z 11012KT 04/02 A3042 RMK A01 T00360024  RH  092%=      5-min Rain = 0
KSB1 080336Z 11011KT 04/02 A3042 RMK A01 T00360024  RH  092%=      5-min Rain = 0
KSB1 080337Z 12011KT 04/02 A3042 RMK A01 T00360024  RH  092%=      5-min Rain = 0
KSB1 080338Z 11011KT 04/02 A3042 RMK A01 T00360024  RH  092%=      5-min Rain = 0
KSB1 080339Z 11011KT 04/02 A3042 RMK A01 T00350024  RH  092%=      5-min Rain = 0
KSB1 080340Z 12010KT 04/02 A3042 RMK A01 T00350024  RH  092%=      5-min Rain = 0
KSB1 080341Z 12011KT 04/02 A3042 RMK A01 T00350024  RH  092%=      5-min Rain = 0
KSB1 080342Z 12013KT 04/03 A3041 RMK A01 T00360025  RH  092%=      5-min Rain = 0
KSB1 080343Z 11013KT 04/02 A3042 RMK A01 T00360024  RH  092%=      5-min Rain = 0
KSB1 080344Z 12011KT 04/02 A3042 RMK A01 T00360024  RH  092%=      5-min Rain = 0
KSB1 080345Z 11011KT 04/02 A3042 RMK A01 T00350024  RH  092%=      5-min Rain = 0
KSB1 080346Z 12010KT 04/02 A3042 RMK A01 T00350024  RH  092%=      5-min Rain = 0
KSB1 080347Z 12012KT 04/02 A3042 RMK A01 T00360024  RH  092%=      5-min Rain = 0
KSB1 080348Z 12012KT 04/02 A3042 RMK A01 T00360024  RH  092%=      5-min Rain = 0
KSB1 080349Z 11011KT 04/02 A3042 RMK A01 T00360024  RH  092%=      5-min Rain = 0
KSB1 080350Z 11011KT 04/02 A3042 RMK A01 T00360024  RH  092%=      5-min Rain = 0
KSB1 080351Z 11009KT 04/02 A3042 RMK A01 T00360024  RH  092%=      5-min Rain = 0
KSB1 080352Z 11010KT 04/02 A3042 RMK A01 T00360024  RH  092%=      5-min Rain = 0
KSB1 080353Z 11009KT 04/02 A3042 RMK A01 T00360024  RH  092%=      5-min Rain = 0
KSB1 080354Z 12011KT 04/02 A3042 RMK A01 T00360024  RH  092%=      5-min Rain = 0
KSB1 080355Z 13010KT 04/02 A3042 RMK A01 T00350023  RH  092%=      5-min Rain = 0
KSB1 080356Z 13009KT 04/02 A3042 RMK A01 T00350023  RH  092%=      5-min Rain = 0
KSB1 080357Z 12007KT 04/02 A3042 RMK A01 T00350024  RH  092%=      5-min Rain = 0
KSB1 080358Z 11008KT 04/03 A3042 RMK A01 T00360025  RH  092%=      5-min Rain = 0
KSB1 080359Z 11009KT 04/02 A3042 RMK A01 T00360024  RH  092%=      5-min Rain = 0
KSB1 080400Z 12008KT 04/02 A3042 RMK A01 T00360024  RH  092%=      5-min Rain = 0
KSB1 080401Z 12009KT 04/02 A3042 RMK A01 T00360024  RH  092%=      5-min Rain = 0
KSB1 080402Z 12008KT 04/02 A3042 RMK A01 T00360024  RH  092%=      5-min Rain = 0
KSB1 080403Z 13008KT 04/02 A3042 RMK A01 T00360024  RH  092%=      5-min Rain = 0
KSB1 080404Z 12010KT 04/03 A3042 RMK A01 T00360025  RH  092%=      5-min Rain = 0
KSB1 080405Z 12010KT 04/02 A3042 RMK A01 T00360024  RH  092%=      5-min Rain = 0
KSB1 080406Z 13009KT 04/02 A3042 RMK A01 T00360024  RH  092%=      5-min Rain = 0
KSB1 080407Z 12007KT 04/02 A3042 RMK A01 T00360024  RH  092%=      5-min Rain = 0
KSB1 080408Z 11011KT 04/02 A3042 RMK A01 T00360023  RH  092%=      5-min Rain = 0
KSB1 080409Z 12011KT 04/02 A3042 RMK A01 T00360023  RH  092%=      5-min Rain = 0
KSB1 080410Z 12010KT 04/02 A3042 RMK A01 T00350023  RH  092%=      5-min Rain = 0
KSB1 080411Z 12008KT 04/02 A3042 RMK A01 T00350023  RH  092%=      5-min Rain = 0
KSB1 080412Z 11010KT 04/02 A3042 RMK A01 T00350023  RH  092%=      5-min Rain = 0
KSB1 080413Z 12011KT 04/02 A3042 RMK A01 T00350023  RH  092%=      5-min Rain = 0
KSB1 080414Z 12010KT 04/02 A3042 RMK A01 T00350023  RH  092%=      5-min Rain = 0
KSB1 080415Z 12009KT 04/02 A3042 RMK A01 T00350023  RH  092%=      5-min Rain = 0
KSB1 080416Z 13010KT 04/02 A3042 RMK A01 T00350023  RH  092%=      5-min Rain = 0
KSB1 080417Z 13010KT 04/02 A3042 RMK A01 T00350023  RH  092%=      5-min Rain = 0
KSB1 080418Z 13010KT 04/02 A3042 RMK A01 T00350023  RH  091%=      5-min Rain = 0
KSB1 080419Z 13011KT 04/02 A3042 RMK A01 T00350022  RH  091%=      5-min Rain = 0
KSB1 080420Z 12011KT 04/02 A3042 RMK A01 T00350022  RH  091%=      5-min Rain = 0
KSB1 080421Z 12012KT 04/02 A3042 RMK A01 T00350022  RH  091%=      5-min Rain = 0
KSB1 080422Z 12010KT 03/02 A3042 RMK A01 T00340022  RH  091%=      5-min Rain = 0
KSB1 080423Z 12009KT 03/02 A3042 RMK A01 T00340022  RH  091%=      5-min Rain = 0
KSB1 080424Z 12010KT 03/02 A3042 RMK A01 T00340022  RH  092%=      5-min Rain = 0
KSB1 080425Z 12011KT 03/02 A3042 RMK A01 T00340022  RH  092%=      5-min Rain = 0
KSB1 080426Z 12010KT 03/02 A3042 RMK A01 T00340022  RH  092%=      5-min Rain = 0
KSB1 080427Z 12010KT 03/02 A3042 RMK A01 T00340022  RH  091%=      5-min Rain = 0
KSB1 080428Z 12010KT 03/02 A3042 RMK A01 T00340022  RH  092%=      5-min Rain = 0
KSB1 080429Z 12009KT 03/02 A3042 RMK A01 T00340022  RH  092%=      5-min Rain = 0
KSB1 080430Z 12008KT 03/02 A3042 RMK A01 T00340022  RH  092%=      5-min Rain = 0
KSB1 080431Z 14010KT 04/02 A3042 RMK A01 T00350023  RH  092%=      5-min Rain = 0
KSB1 080432Z 14009KT 04/02 A3042 RMK A01 T00350022  RH  091%=      5-min Rain = 0
KSB1 080433Z 12006KT 04/02 A3042 RMK A01 T00350022  RH  091%=      5-min Rain = 0
KSB1 080434Z 12010KT 04/02 A3042 RMK A01 T00350023  RH  092%=      5-min Rain = 0
KSB1 080435Z 12009KT 04/02 A3042 RMK A01 T00350022  RH  091%=      5-min Rain = 0
KSB1 080436Z 12009KT 04/02 A3042 RMK A01 T00350022  RH  091%=      5-min Rain = 0
KSB1 080437Z 13008KT 03/02 A3042 RMK A01 T00340022  RH  091%=      5-min Rain = 0
KSB1 080438Z 14010KT 04/02 A3042 RMK A01 T00350022  RH  092%=      5-min Rain = 0
KSB1 080439Z 13010KT 04/02 A3043 RMK A01 T00350022  RH  092%=      5-min Rain = 0
KSB1 080440Z 12009KT 04/02 A3043 RMK A01 T00350022  RH  091%=      5-min Rain = 0
KSB1 080441Z 12008KT 03/02 A3043 RMK A01 T00340021  RH  091%=      5-min Rain = 0
KSB1 080442Z 13009KT 03/02 A3043 RMK A01 T00340022  RH  091%=      5-min Rain = 0
KSB1 080443Z 12011KT 03/02 A3043 RMK A01 T00340022  RH  091%=      5-min Rain = 0
KSB1 080444Z 12010KT 03/02 A3043 RMK A01 T00340021  RH  091%=      5-min Rain = 0
KSB1 080445Z 12008KT 03/02 A3043 RMK A01 T00340022  RH  091%=      5-min Rain = 0
KSB1 080446Z 12009KT 03/02 A3043 RMK A01 T00340022  RH  092%=      5-min Rain = 0
KSB1 080447Z 13010KT 03/02 A3043 RMK A01 T00340022  RH  092%=      5-min Rain = 0
KSB1 080448Z 13010KT 03/02 A3043 RMK A01 T00340022  RH  092%=      5-min Rain = 0
KSB1 080449Z 12009KT 03/02 A3043 RMK A01 T00340021  RH  092%=      5-min Rain = 0
KSB1 080450Z 12011KT 03/02 A3043 RMK A01 T00340021  RH  092%=      5-min Rain = 0
KSB1 080451Z 12011KT 03/02 A3043 RMK A01 T00340021  RH  092%=      5-min Rain = 0
KSB1 080452Z 13010KT 03/02 A3043 RMK A01 T00340021  RH  091%=      5-min Rain = 0
KSB1 080453Z 12008KT 03/02 A3043 RMK A01 T00340022  RH  092%=      5-min Rain = 0
KSB1 080454Z 12009KT 03/02 A3043 RMK A01 T00340022  RH  092%=      5-min Rain = 0
KSB1 080455Z 12009KT 03/02 A3043 RMK A01 T00340022  RH  092%=      5-min Rain = 0
KSB1 080456Z 11009KT 03/02 A3042 RMK A01 T00340022  RH  092%=      5-min Rain = 0
KSB1 080457Z 12010KT 03/02 A3042 RMK A01 T00340022  RH  092%=      5-min Rain = 0
KSB1 080458Z 12010KT 03/02 A3042 RMK A01 T00340022  RH  092%=      5-min Rain = 0
KSB1 080459Z 12012KT 03/02 A3042 RMK A01 T00340022  RH  092%=      5-min Rain = 0
KSB1 080500Z 12011KT 03/02 A3042 RMK A01 T00340021  RH  091%=      5-min Rain = 0
KSB1 080501Z 12008KT 03/02 A3042 RMK A01 T00340021  RH  091%=      5-min Rain = 0
KSB1 080502Z 12010KT 03/02 A3042 RMK A01 T00340022  RH  092%=      5-min Rain = 0
KSB1 080503Z 12010KT 04/02 A3042 RMK A01 T00350022  RH  092%=      5-min Rain = 0
KSB1 080504Z 12009KT 04/02 A3042 RMK A01 T00350022  RH  091%=      5-min Rain = 0
KSB1 080505Z 12009KT 04/02 A3042 RMK A01 T00350022  RH  091%=      5-min Rain = 0
KSB1 080506Z 12011KT 04/02 A3042 RMK A01 T00350023  RH  091%=      5-min Rain = 0
KSB1 080507Z 13010KT 04/02 A3042 RMK A01 T00350022  RH  091%=      5-min Rain = 0
KSB1 080508Z 13011KT 04/02 A3042 RMK A01 T00350022  RH  091%=      5-min Rain = 0
KSB1 080509Z 12012KT 04/02 A3042 RMK A01 T00350022  RH  091%=      5-min Rain = 0
KSB1 080510Z 12013KT 04/02 A3042 RMK A01 T00350022  RH  091%=      5-min Rain = 0
KSB1 080511Z 12010KT 04/02 A3042 RMK A01 T00350022  RH  091%=      5-min Rain = 0
KSB1 080512Z 12008KT 04/02 A3042 RMK A01 T00350022  RH  091%=      5-min Rain = 0
KSB1 080513Z 13008KT 04/02 A3042 RMK A01 T00360022  RH  091%=      5-min Rain = 0
KSB1 080514Z 13008KT 04/02 A3042 RMK A01 T00360023  RH  091%=      5-min Rain = 0
KSB1 080515Z 13009KT 04/02 A3042 RMK A01 T00370023  RH  091%=      5-min Rain = 0
KSB1 080516Z 13011KT 04/02 A3042 RMK A01 T00370023  RH  091%=      5-min Rain = 0
KSB1 080517Z 12011KT 04/02 A3042 RMK A01 T00360022  RH  090%=      5-min Rain = 0
KSB1 080518Z 12010KT 04/02 A3042 RMK A01 T00360022  RH  091%=      5-min Rain = 0
KSB1 080519Z 12010KT 04/02 A3042 RMK A01 T00360022  RH  091%=      5-min Rain = 0
KSB1 080520Z 12010KT 04/02 A3042 RMK A01 T00350022  RH  091%=      5-min Rain = 0
KSB1 080521Z 11010KT 04/02 A3042 RMK A01 T00350022  RH  091%=      5-min Rain = 0
KSB1 080522Z 12012KT 04/02 A3042 RMK A01 T00350022  RH  091%=      5-min Rain = 0
KSB1 080523Z 12012KT 03/02 A3042 RMK A01 T00340021  RH  091%=      5-min Rain = 0
KSB1 080524Z 12012KT 03/02 A3042 RMK A01 T00340021  RH  091%=      5-min Rain = 0
KSB1 080525Z 12011KT 03/02 A3042 RMK A01 T00330021  RH  091%=      5-min Rain = 0
KSB1 080526Z 12010KT 03/02 A3042 RMK A01 T00330021  RH  092%=      5-min Rain = 0
KSB1 080527Z 12009KT 03/02 A3042 RMK A01 T00340021  RH  092%=      5-min Rain = 0
KSB1 080528Z 12011KT 03/02 A3042 RMK A01 T00330022  RH  092%=      5-min Rain = 0
KSB1 080529Z 12010KT 03/02 A3042 RMK A01 T00330021  RH  092%=      5-min Rain = 0
KSB1 080530Z 12011KT 03/02 A3042 RMK A01 T00330021  RH  092%=      5-min Rain = 0
KSB1 080531Z 12010KT 03/02 A3042 RMK A01 T00330021  RH  092%=      5-min Rain = 0
KSB1 080532Z 12010KT 03/02 A3042 RMK A01 T00330021  RH  092%=      5-min Rain = 0
KSB1 080533Z 12009KT 03/02 A3042 RMK A01 T00330021  RH  092%=      5-min Rain = 0
KSB1 080534Z 13009KT 03/02 A3042 RMK A01 T00340021  RH  092%=      5-min Rain = 0
KSB1 080535Z 12010KT 03/02 A3042 RMK A01 T00330021  RH  092%=      5-min Rain = 0
KSB1 080536Z 12008KT 03/02 A3042 RMK A01 T00330021  RH  092%=      5-min Rain = 0
KSB1 080537Z 12008KT 03/02 A3042 RMK A01 T00340022  RH  092%=      5-min Rain = 0
KSB1 080538Z 12007KT 03/02 A3042 RMK A01 T00340022  RH  092%=      5-min Rain = 0
KSB1 080539Z 12008KT 04/02 A3042 RMK A01 T00350022  RH  092%=      5-min Rain = 0
KSB1 080540Z 12011KT 04/02 A3042 RMK A01 T00350022  RH  091%=      5-min Rain = 0
KSB1 080541Z 12010KT 04/02 A3042 RMK A01 T00350022  RH  091%=      5-min Rain = 0
KSB1 080542Z 12010KT 03/02 A3042 RMK A01 T00340021  RH  091%=      5-min Rain = 0
KSB1 080543Z 12011KT 03/02 A3042 RMK A01 T00340021  RH  091%=      5-min Rain = 0
KSB1 080544Z 12009KT 03/02 A3042 RMK A01 T00340021  RH  091%=      5-min Rain = 0
KSB1 080545Z 12007KT 03/02 A3042 RMK A01 T00340021  RH  091%=      5-min Rain = 0
KSB1 080546Z 12009KT 03/02 A3042 RMK A01 T00340021  RH  092%=      5-min Rain = 0
KSB1 080547Z 11010KT 03/02 A3042 RMK A01 T00340021  RH  091%=      5-min Rain = 0
KSB1 080548Z 12008KT 03/02 A3042 RMK A01 T00340021  RH  091%=      5-min Rain = 0
KSB1 080549Z 13008KT 03/02 A3042 RMK A01 T00340021  RH  091%=      5-min Rain = 0
KSB1 080550Z 12010KT 03/02 A3042 RMK A01 T00340021  RH  091%=      5-min Rain = 0
KSB1 080551Z 12009KT 03/02 A3042 RMK A01 T00340021  RH  091%=      5-min Rain = 0
KSB1 080552Z 13010KT 04/02 A3042 RMK A01 T00350022  RH  091%=      5-min Rain = 0
KSB1 080553Z 13009KT 04/02 A3042 RMK A01 T00350022  RH  091%=      5-min Rain = 0
KSB1 080554Z 13009KT 04/02 A3041 RMK A01 T00350022  RH  091%=      5-min Rain = 0
KSB1 080555Z 12010KT 04/02 A3041 RMK A01 T00350022  RH  091%=      5-min Rain = 0
KSB1 080556Z 13010KT 04/02 A3041 RMK A01 T00350022  RH  091%=      5-min Rain = 0
KSB1 080557Z 13011KT 04/02 A3041 RMK A01 T00350022  RH  091%=      5-min Rain = 0
KSB1 080558Z 13009KT 04/02 A3041 RMK A01 T00350021  RH  091%=      5-min Rain = 0
KSB1 080559Z 13010KT 04/02 A3041 RMK A01 T00350022  RH  091%=      5-min Rain = 0

Page generated in 0.0727 seconds.